Wetterdaten: Montag, 20.11.2023
Datum Zeit Temp. Aussen Temp. o. S. Temp +5cm Feuchte Auss Luftdruck Regen Sonnenschein Regendauer Solar Windben Empfang
20.11.2023 00:00 10,9 C 10,0 C 7,2 C 97 % 1009,7 hPa 0,0 l/m 0 min 0 min 0 W/m 22,5 km/h (4 Bft) 100,00 %
20.11.2023 00:06 10,8 C 10,0 C 7,2 C 97 % 1009,8 hPa 0,0 l/m 0 min 0 min 0 W/m 22,5 km/h (4 Bft) 97,12 %
20.11.2023 00:07 10,8 C 10,0 C 7,2 C 97 % 1009,8 hPa 0,0 l/m 0 min 0 min 0 W/m 12,9 km/h (3 Bft) 97,12 %
20.11.2023 00:08 10,8 C 10,0 C 7,2 C 97 % 1009,8 hPa 0,0 l/m 0 min 0 min 0 W/m 12,9 km/h (3 Bft) 97,37 %
20.11.2023 00:12 10,8 C 10,0 C 7,2 C 97 % 1009,8 hPa 0,0 l/m 0 min 0 min 0 W/m 9,7 km/h (2 Bft) 100,00 %
20.11.2023 00:16 10,8 C 10,0 C 7,2 C 97 % 1009,8 hPa 0,0 l/m 0 min 0 min 0 W/m 16,1 km/h (3 Bft) 97,87 %
20.11.2023 00:18 10,8 C 10,0 C 7,2 C 97 % 1009,9 hPa 0,0 l/m 0 min 0 min 0 W/m 19,3 km/h (3 Bft) 97,87 %
20.11.2023 00:20 10,9 C 10,6 C 7,2 C 97 % 1009,8 hPa 0,0 l/m 0 min 0 min 0 W/m 19,3 km/h (3 Bft) 95,74 %
20.11.2023 00:22 10,9 C 10,6 C 7,2 C 97 % 1009,8 hPa 0,0 l/m 0 min 0 min 0 W/m 16,1 km/h (3 Bft) 97,83 %
20.11.2023 00:24 10,9 C 10,6 C 7,2 C 97 % 1009,8 hPa 0,0 l/m 0 min 0 min 0 W/m 25,7 km/h (4 Bft) 97,87 %
20.11.2023 00:26 10,9 C 10,6 C 7,2 C 97 % 1009,7 hPa 0,0 l/m 0 min 0 min 0 W/m 16,1 km/h (3 Bft) 97,87 %
20.11.2023 00:28 10,9 C 10,6 C 7,2 C 97 % 1009,8 hPa 0,0 l/m 0 min 0 min 0 W/m 16,1 km/h (3 Bft) 95,74 %
20.11.2023 00:30 10,9 C 10,6 C 7,2 C 97 % 1009,8 hPa 0,0 l/m 0 min 0 min 0 W/m 29,0 km/h (5 Bft) 97,87 %
20.11.2023 00:32 10,9 C 10,6 C 7,2 C 97 % 1009,8 hPa 0,0 l/m 0 min 0 min 0 W/m 25,7 km/h (4 Bft) 100,00 %
20.11.2023 00:34 10,9 C 10,6 C 7,2 C 97 % 1009,8 hPa 0,0 l/m 0 min 0 min 0 W/m 25,7 km/h (4 Bft) 100,00 %
20.11.2023 00:36 10,9 C 10,6 C 7,2 C 96 % 1009,7 hPa 0,0 l/m 0 min 0 min 0 W/m 16,1 km/h (3 Bft) 100,00 %
20.11.2023 00:38 11,0 C 10,6 C 7,2 C 96 % 1009,8 hPa 0,0 l/m 0 min 0 min 0 W/m 16,1 km/h (3 Bft) 100,00 %
20.11.2023 00:40 10,9 C 10,6 C 7,2 C 96 % 1009,9 hPa 0,0 l/m 0 min 0 min 0 W/m 29,0 km/h (5 Bft) 100,00 %
20.11.2023 00:42 11,0 C 10,6 C 7,2 C 96 % 1009,8 hPa 0,0 l/m 0 min 0 min 0 W/m 22,5 km/h (4 Bft) 100,00 %
20.11.2023 00:44 11,0 C 10,6 C 7,2 C 96 % 1009,8 hPa 0,0 l/m 0 min 0 min 0 W/m 19,3 km/h (3 Bft) 100,00 %
20.11.2023 00:46 11,0 C 10,6 C 7,2 C 96 % 1009,8 hPa 0,0 l/m 0 min 0 min 0 W/m 19,3 km/h (3 Bft) 100,00 %
20.11.2023 00:48 11,0 C 10,6 C 7,2 C 96 % 1009,8 hPa 0,0 l/m 0 min 0 min 0 W/m 16,1 km/h (3 Bft) 100,00 %
20.11.2023 00:50 11,0 C 10,6 C 7,2 C 96 % 1009,7 hPa 0,0 l/m 0 min 0 min 0 W/m 16,1 km/h (3 Bft) 97,83 %
20.11.2023 00:52 11,0 C 10,6 C 7,2 C 96 % 1009,8 hPa 0,0 l/m 0 min 0 min 0 W/m 19,3 km/h (3 Bft) 100,00 %
20.11.2023 00:54 11,0 C 10,6 C 7,2 C 96 % 1009,8 hPa 0,0 l/m 0 min 0 min 0 W/m 12,9 km/h (3 Bft) 100,00 %
20.11.2023 00:56 11,0 C 10,6 C 7,2 C 96 % 1009,7 hPa 0,0 l/m 0 min 0 min 0 W/m 22,5 km/h (4 Bft) 95,74 %
20.11.2023 00:58 11,0 C 10,6 C 7,2 C 96 % 1009,8 hPa 0,0 l/m 0 min 0 min 0 W/m 25,7 km/h (4 Bft) 100,00 %
20.11.2023 01:00 11,1 C 10,6 C 7,2 C 96 % 1009,8 hPa 0,0 l/m 0 min 0 min 0 W/m 12,9 km/h (3 Bft) 100,00 %
20.11.2023 01:02 11,1 C 10,6 C 7,2 C 96 % 1009,8 hPa 0,0 l/m 0 min 0 min 0 W/m 19,3 km/h (3 Bft) 97,87 %
20.11.2023 01:04 11,1 C 10,6 C 7,2 C 96 % 1009,8 hPa 0,0 l/m 0 min 0 min 0 W/m 16,1 km/h (3 Bft) 100,00 %
20.11.2023 01:08 11,1 C 10,6 C 7,2 C 96 % 1009,8 hPa 0,0 l/m 0 min 0 min 0 W/m 45,1 km/h (6 Bft) 98,04 %
20.11.2023 01:09 11,1 C 10,6 C 7,2 C 96 % 1009,9 hPa 0,0 l/m 0 min 0 min 0 W/m 12,9 km/h (3 Bft) 98,76 %
20.11.2023 01:12 11,1 C 10,6 C 7,2 C 95 % 1009,8 hPa 0,0 l/m 0 min 0 min 0 W/m 16,1 km/h (3 Bft) 98,82 %
20.11.2023 01:14 11,1 C 10,6 C 7,2 C 95 % 1009,7 hPa 0,0 l/m 0 min 0 min 0 W/m 16,1 km/h (3 Bft) 97,87 %
20.11.2023 01:16 11,1 C 10,6 C 7,2 C 95 % 1009,8 hPa 0,0 l/m 0 min 0 min 0 W/m 12,9 km/h (3 Bft) 97,87 %
20.11.2023 01:18 11,1 C 10,6 C 7,2 C 95 % 1009,7 hPa 0,0 l/m 0 min 0 min 0 W/m 22,5 km/h (4 Bft) 97,87 %
20.11.2023 01:20 11,1 C 10,6 C 7,2 C 95 % 1009,7 hPa 0,0 l/m 0 min 0 min 0 W/m 12,9 km/h (3 Bft) 95,65 %
20.11.2023 01:22 11,1 C 10,6 C 7,2 C 95 % 1009,8 hPa 0,0 l/m 0 min 0 min 0 W/m 19,3 km/h (3 Bft) 55,56 %
20.11.2023 01:24 11,1 C 10,6 C 7,2 C 95 % 1009,8 hPa 0,0 l/m 0 min 0 min 0 W/m 16,1 km/h (3 Bft) 97,87 %
20.11.2023 01:26 11,1 C 10,6 C 7,2 C 95 % 1009,7 hPa 0,0 l/m 0 min 0 min 0 W/m 16,1 km/h (3 Bft) 95,74 %
20.11.2023 01:28 11,1 C 10,6 C 7,2 C 95 % 1009,7 hPa 0,0 l/m 0 min 0 min 0 W/m 19,3 km/h (3 Bft) 97,87 %
20.11.2023 01:30 11,1 C 10,6 C 7,2 C 95 % 1009,7 hPa 0,0 l/m 0 min 0 min 0 W/m 19,3 km/h (3 Bft) 93,62 %
20.11.2023 01:32 11,1 C 10,6 C 7,2 C 95 % 1009,7 hPa 0,0 l/m 0 min 0 min 0 W/m 16,1 km/h (3 Bft) 95,74 %
20.11.2023 01:34 11,1 C 10,6 C 7,2 C 95 % 1009,7 hPa 0,0 l/m 0 min 0 min 0 W/m 25,7 km/h (4 Bft) 93,48 %
20.11.2023 01:36 11,1 C 10,6 C 7,2 C 95 % 1009,8 hPa 0,0 l/m 0 min 0 min 0 W/m 19,3 km/h (3 Bft) 97,87 %
20.11.2023 01:38 11,1 C 10,6 C 7,2 C 95 % 1009,7 hPa 0,0 l/m 0 min 0 min 0 W/m 16,1 km/h (3 Bft) 95,74 %
20.11.2023 01:40 11,1 C 10,6 C 7,2 C 94 % 1009,8 hPa 0,0 l/m 0 min 0 min 0 W/m 19,3 km/h (3 Bft) 95,74 %
20.11.2023 01:42 11,1 C 10,6 C 7,2 C 94 % 1009,8 hPa 0,0 l/m 0 min 0 min 0 W/m 6,4 km/h (2 Bft) 97,87 %
20.11.2023 01:44 11,1 C 10,6 C 7,2 C 94 % 1009,8 hPa 0,0 l/m 0 min 0 min 0 W/m 12,9 km/h (3 Bft) 95,74 %
20.11.2023 01:46 11,1 C 10,6 C 7,2 C 94 % 1009,9 hPa 0,0 l/m 0 min 0 min 0 W/m 16,1 km/h (3 Bft) 97,87 %
20.11.2023 01:48 11,1 C 10,6 C 7,2 C 95 % 1009,9 hPa 0,0 l/m 0 min 0 min 0 W/m 25,7 km/h (4 Bft) 97,83 %
20.11.2023 01:50 11,2 C 10,6 C 7,2 C 94 % 1010,0 hPa 0,0 l/m 0 min 0 min 0 W/m 29,0 km/h (5 Bft) 95,74 %
20.11.2023 01:52 11,2 C 10,6 C 7,2 C 94 % 1009,9 hPa 0,0 l/m 0 min 0 min 0 W/m 16,1 km/h (3 Bft) 95,74 %
20.11.2023 01:54 11,2 C 10,6 C 7,2 C 94 % 1009,9 hPa 0,0 l/m 0 min 0 min 0 W/m 12,9 km/h (3 Bft) 93,62 %
20.11.2023 01:56 11,2 C 10,6 C 7,2 C 94 % 1009,9 hPa 0,0 l/m 0 min 0 min 0 W/m 19,3 km/h (3 Bft) 93,62 %
20.11.2023 01:58 11,2 C 10,6 C 7,2 C 94 % 1010,0 hPa 0,0 l/m 0 min 0 min 0 W/m 16,1 km/h (3 Bft) 93,62 %
20.11.2023 02:00 11,2 C 10,6 C 7,2 C 94 % 1010,1 hPa 0,0 l/m 0 min 0 min 0 W/m 25,7 km/h (4 Bft) 93,62 %
20.11.2023 02:02 11,2 C 10,6 C 7,2 C 94 % 1009,8 hPa 0,0 l/m 0 min 0 min 0 W/m 16,1 km/h (3 Bft) 95,65 %
20.11.2023 02:04 11,2 C 10,6 C 7,2 C 94 % 1009,9 hPa 0,0 l/m 0 min 0 min 0 W/m 19,3 km/h (3 Bft) 94,00 %
20.11.2023 02:06 11,2 C 10,6 C 7,2 C 94 % 1009,9 hPa 0,0 l/m 0 min 0 min 0 W/m 22,5 km/h (4 Bft) 95,16 %
20.11.2023 02:08 11,2 C 10,6 C 7,2 C 94 % 1010,0 hPa 0,0 l/m 0 min 0 min 0 W/m 22,5 km/h (4 Bft) 97,14 %
20.11.2023 02:10 11,2 C 10,6 C 7,2 C 94 % 1009,9 hPa 0,0 l/m 0 min 0 min 0 W/m 16,1 km/h (3 Bft) 95,83 %
20.11.2023 02:12 11,2 C 10,6 C 7,2 C 94 % 1009,9 hPa 0,0 l/m 0 min 0 min 0 W/m 25,7 km/h (4 Bft) 94,29 %
20.11.2023 02:14 11,2 C 10,6 C 7,2 C 94 % 1009,9 hPa 0,0 l/m 0 min 0 min 0 W/m 19,3 km/h (3 Bft) 95,65 %
20.11.2023 02:16 11,2 C 10,6 C 7,2 C 94 % 1009,9 hPa 0,0 l/m 0 min 0 min 0 W/m 19,3 km/h (3 Bft) 95,74 %
20.11.2023 02:18 11,2 C 10,6 C 7,2 C 94 % 1010,0 hPa 0,0 l/m 0 min 0 min 0 W/m 16,1 km/h (3 Bft) 95,74 %
20.11.2023 02:20 11,2 C 10,6 C 7,2 C 94 % 1009,9 hPa 0,0 l/m 0 min 0 min 0 W/m 19,3 km/h (3 Bft) 93,62 %
20.11.2023 02:22 11,2 C 10,6 C 7,2 C 94 % 1009,9 hPa 0,0 l/m 0 min 0 min 0 W/m 19,3 km/h (3 Bft) 95,74 %
20.11.2023 02:24 11,1 C 10,6 C 7,2 C 94 % 1009,9 hPa 0,0 l/m 0 min 0 min 0 W/m 25,7 km/h (4 Bft) 95,74 %
20.11.2023 02:26 11,1 C 10,0 C 7,2 C 94 % 1009,9 hPa 0,0 l/m 0 min 0 min 0 W/m 22,5 km/h (4 Bft) 97,87 %
20.11.2023 02:28 11,1 C 10,0 C 7,2 C 94 % 1009,8 hPa 0,0 l/m 0 min 0 min 0 W/m 12,9 km/h (3 Bft) 97,83 %
20.11.2023 02:30 11,1 C 10,0 C 7,2 C 94 % 1009,8 hPa 0,0 l/m 0 min 0 min 0 W/m 29,0 km/h (5 Bft) 97,87 %
20.11.2023 02:32 11,1 C 10,0 C 7,2 C 94 % 1009,9 hPa 0,0 l/m 0 min 0 min 0 W/m 12,9 km/h (3 Bft) 97,87 %
20.11.2023 02:34 11,0 C 10,0 C 7,2 C 94 % 1009,9 hPa 0,0 l/m 0 min 0 min 0 W/m 22,5 km/h (4 Bft) 97,87 %
20.11.2023 02:36 10,9 C 10,0 C 7,2 C 94 % 1009,9 hPa 0,0 l/m 0 min 0 min 0 W/m 22,5 km/h (4 Bft) 97,87 %
20.11.2023 02:38 10,9 C 10,0 C 7,2 C 94 % 1009,9 hPa 0,0 l/m 0 min 0 min 0 W/m 19,3 km/h (3 Bft) 95,65 %
20.11.2023 02:40 10,9 C 10,0 C 7,2 C 94 % 1009,9 hPa 0,0 l/m 0 min 0 min 0 W/m 16,1 km/h (3 Bft) 97,87 %
20.11.2023 02:42 10,9 C 10,0 C 7,2 C 94 % 1009,9 hPa 0,0 l/m 0 min 0 min 0 W/m 16,1 km/h (3 Bft) 97,87 %
20.11.2023 02:44 10,9 C 10,0 C 7,2 C 94 % 1009,9 hPa 0,0 l/m 0 min 0 min 0 W/m 22,5 km/h (4 Bft) 100,00 %
20.11.2023 02:46 10,9 C 10,0 C 7,2 C 94 % 1009,9 hPa 0,0 l/m 0 min 0 min 0 W/m 19,3 km/h (3 Bft) 100,00 %
20.11.2023 02:48 10,9 C 10,0 C 7,2 C 94 % 1009,9 hPa 0,0 l/m 0 min 0 min 0 W/m 16,1 km/h (3 Bft) 100,00 %
20.11.2023 02:50 10,9 C 10,0 C 7,2 C 94 % 1009,8 hPa 0,0 l/m 0 min 0 min 0 W/m 16,1 km/h (3 Bft) 97,83 %
20.11.2023 02:52 10,9 C 10,0 C 7,2 C 95 % 1009,9 hPa 0,0 l/m 0 min 0 min 0 W/m 16,1 km/h (3 Bft) 97,87 %
20.11.2023 02:54 10,9 C 10,0 C 7,2 C 95 % 1009,8 hPa 0,0 l/m 0 min 0 min 0 W/m 19,3 km/h (3 Bft) 100,00 %
20.11.2023 02:56 10,9 C 10,0 C 7,2 C 95 % 1009,9 hPa 0,0 l/m 0 min 0 min 0 W/m 22,5 km/h (4 Bft) 100,00 %
20.11.2023 02:58 10,9 C 10,0 C 7,2 C 95 % 1009,9 hPa 0,0 l/m 0 min 0 min 0 W/m 22,5 km/h (4 Bft) 100,00 %
20.11.2023 03:00 10,9 C 10,0 C 7,2 C 95 % 1009,9 hPa 0,0 l/m 0 min 0 min 0 W/m 25,7 km/h (4 Bft) 97,87 %
20.11.2023 03:02 10,9 C 10,0 C 7,2 C 95 % 1009,8 hPa 0,0 l/m 0 min 0 min 0 W/m 22,5 km/h (4 Bft) 97,83 %
20.11.2023 03:04 10,9 C 10,0 C 7,2 C 95 % 1009,9 hPa 0,0 l/m 0 min 0 min 0 W/m 16,1 km/h (3 Bft) 100,00 %
20.11.2023 03:06 10,9 C 10,0 C 7,2 C 95 % 1010,1 hPa 0,0 l/m 0 min 0 min 0 W/m 22,5 km/h (4 Bft) 97,87 %
20.11.2023 03:08 10,9 C 10,0 C 7,2 C 95 % 1009,9 hPa 0,0 l/m 0 min 0 min 0 W/m 9,7 km/h (2 Bft) 100,00 %
20.11.2023 03:10 10,9 C 10,0 C 7,2 C 95 % 1009,8 hPa 0,0 l/m 0 min 0 min 0 W/m 22,5 km/h (4 Bft) 100,00 %
20.11.2023 03:12 10,9 C 10,6 C 7,2 C 95 % 1009,8 hPa 0,0 l/m 0 min 0 min 0 W/m 22,5 km/h (4 Bft) 97,87 %
20.11.2023 03:14 10,9 C 10,6 C 7,2 C 95 % 1010,0 hPa 0,0 l/m 0 min 0 min 0 W/m 16,1 km/h (3 Bft) 100,00 %
20.11.2023 03:16 10,9 C 10,0 C 7,2 C 95 % 1009,8 hPa 0,0 l/m 0 min 0 min 0 W/m 19,3 km/h (3 Bft) 100,00 %
20.11.2023 03:18 10,9 C 10,0 C 7,2 C 95 % 1010,0 hPa 0,0 l/m 0 min 0 min 0 W/m 35,4 km/h (5 Bft) 54,55 %
20.11.2023 03:20 10,9 C 10,0 C 7,2 C 95 % 1009,9 hPa 0,0 l/m 0 min 0 min 0 W/m 19,3 km/h (3 Bft) 100,00 %
20.11.2023 03:22 10,9 C 10,0 C 7,2 C 95 % 1009,9 hPa 0,0 l/m 0 min 0 min 0 W/m 19,3 km/h (3 Bft) 100,00 %
20.11.2023 03:24 10,9 C 10,0 C 7,2 C 95 % 1009,9 hPa 0,0 l/m 0 min 0 min 0 W/m 32,2 km/h (5 Bft) 97,87 %
20.11.2023 03:26 10,9 C 10,0 C 7,2 C 95 % 1009,9 hPa 0,0 l/m 0 min 0 min 0 W/m 16,1 km/h (3 Bft) 100,00 %
20.11.2023 03:28 10,9 C 10,0 C 7,2 C 95 % 1009,8 hPa 0,0 l/m 0 min 0 min 0 W/m 19,3 km/h (3 Bft) 100,00 %
20.11.2023 03:30 10,9 C 10,0 C 7,2 C 95 % 1009,8 hPa 0,0 l/m 0 min 0 min 0 W/m 29,0 km/h (5 Bft) 100,00 %
20.11.2023 03:32 10,9 C 10,0 C 7,2 C 95 % 1009,9 hPa 0,0 l/m 0 min 0 min 0 W/m 16,1 km/h (3 Bft) 100,00 %
20.11.2023 03:34 10,9 C 10,0 C 7,2 C 95 % 1009,8 hPa 0,0 l/m 0 min 0 min 0 W/m 16,1 km/h (3 Bft) 97,87 %
20.11.2023 03:36 10,9 C 10,0 C 7,2 C 95 % 1009,8 hPa 0,0 l/m 0 min 0 min 0 W/m 16,1 km/h (3 Bft) 100,00 %
20.11.2023 03:38 10,9 C 10,0 C 7,2 C 95 % 1009,9 hPa 0,0 l/m 0 min 0 min 0 W/m 25,7 km/h (4 Bft) 100,00 %
20.11.2023 03:40 10,9 C 10,0 C 7,2 C 95 % 1009,9 hPa 0,0 l/m 0 min 0 min 0 W/m 16,1 km/h (3 Bft) 100,00 %
20.11.2023 03:42 10,9 C 10,6 C 7,2 C 94 % 1009,8 hPa 0,0 l/m 0 min 0 min 0 W/m 19,3 km/h (3 Bft) 98,15 %
20.11.2023 03:44 10,9 C 10,6 C 7,2 C 94 % 1009,7 hPa 0,0 l/m 0 min 0 min 0 W/m 25,7 km/h (4 Bft) 95,65 %
20.11.2023 03:46 10,9 C 10,6 C 7,2 C 94 % 1009,7 hPa 0,0 l/m 0 min 0 min 0 W/m 16,1 km/h (3 Bft) 97,87 %
20.11.2023 03:48 10,9 C 10,0 C 7,2 C 94 % 1009,8 hPa 0,0 l/m 0 min 0 min 0 W/m 25,7 km/h (4 Bft) 93,62 %
20.11.2023 03:50 10,9 C 10,0 C 7,2 C 94 % 1009,7 hPa 0,0 l/m 0 min 0 min 0 W/m 12,9 km/h (3 Bft) 93,62 %
20.11.2023 03:52 10,9 C 10,0 C 7,2 C 94 % 1009,8 hPa 0,0 l/m 0 min 0 min 0 W/m 16,1 km/h (3 Bft) 93,62 %
20.11.2023 03:54 10,9 C 10,0 C 7,2 C 94 % 1009,8 hPa 0,0 l/m 0 min 0 min 0 W/m 16,1 km/h (3 Bft) 95,74 %
20.11.2023 03:56 10,9 C 10,0 C 7,2 C 94 % 1009,7 hPa 0,0 l/m 0 min 0 min 0 W/m 16,1 km/h (3 Bft) 95,74 %
20.11.2023 03:58 10,9 C 10,0 C 7,2 C 94 % 1009,7 hPa 0,0 l/m 0 min 0 min 0 W/m 22,5 km/h (4 Bft) 95,65 %
20.11.2023 04:00 10,9 C 10,0 C 7,2 C 94 % 1009,7 hPa 0,0 l/m 0 min 0 min 0 W/m 19,3 km/h (3 Bft) 95,74 %
20.11.2023 04:02 10,9 C 10,0 C 7,2 C 94 % 1009,7 hPa 0,0 l/m 0 min 0 min 0 W/m 22,5 km/h (4 Bft) 95,74 %
20.11.2023 04:04 10,9 C 10,0 C 7,2 C 94 % 1009,7 hPa 0,0 l/m 0 min 0 min 0 W/m 22,5 km/h (4 Bft) 95,35 %
20.11.2023 04:08 10,9 C 10,0 C 7,2 C 94 % 1009,7 hPa 0,0 l/m 0 min 0 min 0 W/m 32,2 km/h (5 Bft) 94,29 %
20.11.2023 04:10 10,8 C 10,0 C 7,2 C 94 % 1009,7 hPa 0,0 l/m 0 min 0 min 0 W/m 16,1 km/h (3 Bft) 91,30 %
20.11.2023 04:12 10,9 C 10,0 C 7,2 C 94 % 1009,6 hPa 0,0 l/m 0 min 0 min 0 W/m 19,3 km/h (3 Bft) 93,62 %
20.11.2023 04:14 10,8 C 10,0 C 7,2 C 94 % 1009,7 hPa 0,0 l/m 0 min 0 min 0 W/m 32,2 km/h (5 Bft) 95,74 %
20.11.2023 04:16 10,8 C 10,0 C 7,2 C 94 % 1009,8 hPa 0,0 l/m 0 min 0 min 0 W/m 22,5 km/h (4 Bft) 97,14 %
20.11.2023 04:18 10,8 C 10,0 C 7,2 C 94 % 1009,9 hPa 0,0 l/m 0 min 0 min 0 W/m 22,5 km/h (4 Bft) 95,74 %
20.11.2023 04:20 10,8 C 10,0 C 7,2 C 94 % 1009,7 hPa 0,0 l/m 0 min 0 min 0 W/m 16,1 km/h (3 Bft) 95,83 %
20.11.2023 04:22 10,8 C 10,0 C 7,2 C 94 % 1009,7 hPa 0,0 l/m 0 min 0 min 0 W/m 22,5 km/h (4 Bft) 98,15 %
20.11.2023 04:24 10,8 C 10,0 C 7,2 C 94 % 1009,7 hPa 0,0 l/m 0 min 0 min 0 W/m 16,1 km/h (3 Bft) 97,96 %
20.11.2023 04:26 10,8 C 10,0 C 7,2 C 94 % 1009,6 hPa 0,0 l/m 0 min 0 min 0 W/m 29,0 km/h (5 Bft) 97,87 %
20.11.2023 04:28 10,8 C 10,0 C 7,2 C 94 % 1009,7 hPa 0,0 l/m 0 min 0 min 0 W/m 19,3 km/h (3 Bft) 100,00 %
20.11.2023 04:30 10,8 C 10,0 C 7,2 C 94 % 1009,6 hPa 0,0 l/m 0 min 0 min 0 W/m 22,5 km/h (4 Bft) 100,00 %
20.11.2023 04:32 10,8 C 10,0 C 7,2 C 94 % 1009,6 hPa 0,0 l/m 0 min 0 min 0 W/m 25,7 km/h (4 Bft) 100,00 %
20.11.2023 04:34 10,8 C 10,0 C 7,2 C 94 % 1009,7 hPa 0,0 l/m 0 min 0 min 0 W/m 19,3 km/h (3 Bft) 100,00 %
20.11.2023 04:36 10,8 C 10,0 C 7,2 C 94 % 1009,7 hPa 0,0 l/m 0 min 0 min 0 W/m 19,3 km/h (3 Bft) 100,00 %
20.11.2023 04:38 10,8 C 10,0 C 7,2 C 94 % 1009,7 hPa 0,0 l/m 0 min 0 min 0 W/m 16,1 km/h (3 Bft) 100,00 %
20.11.2023 04:40 10,8 C 10,0 C 7,2 C 94 % 1009,8 hPa 0,0 l/m 0 min 0 min 0 W/m 19,3 km/h (3 Bft) 100,00 %
20.11.2023 04:42 10,8 C 10,0 C 7,2 C 94 % 1009,7 hPa 0,0 l/m 0 min 0 min 0 W/m 19,3 km/h (3 Bft) 100,00 %
20.11.2023 04:44 10,8 C 10,0 C 7,2 C 94 % 1009,8 hPa 0,0 l/m 0 min 0 min 0 W/m 16,1 km/h (3 Bft) 100,00 %
20.11.2023 04:46 10,8 C 10,0 C 7,2 C 94 % 1009,7 hPa 0,0 l/m 0 min 0 min 0 W/m 16,1 km/h (3 Bft) 100,00 %
20.11.2023 04:48 10,8 C 10,0 C 7,2 C 94 % 1009,8 hPa 0,0 l/m 0 min 0 min 0 W/m 22,5 km/h (4 Bft) 100,00 %
20.11.2023 04:50 10,8 C 10,0 C 7,2 C 94 % 1009,7 hPa 0,0 l/m 0 min 0 min 0 W/m 19,3 km/h (3 Bft) 97,87 %
20.11.2023 04:52 10,8 C 10,0 C 7,2 C 94 % 1009,7 hPa 0,0 l/m 0 min 0 min 0 W/m 9,7 km/h (2 Bft) 95,74 %
20.11.2023 04:54 10,8 C 10,0 C 7,2 C 94 % 1009,8 hPa 0,0 l/m 0 min 0 min 0 W/m 12,9 km/h (3 Bft) 97,30 %
20.11.2023 04:56 10,8 C 10,0 C 7,2 C 94 % 1009,9 hPa 0,0 l/m 0 min 0 min 0 W/m 35,4 km/h (5 Bft) 97,87 %
20.11.2023 04:58 10,8 C 10,0 C 7,2 C 94 % 1009,7 hPa 0,0 l/m 0 min 0 min 0 W/m 19,3 km/h (3 Bft) 97,83 %
20.11.2023 05:00 10,8 C 10,0 C 7,2 C 94 % 1009,8 hPa 0,0 l/m 0 min 0 min 0 W/m 12,9 km/h (3 Bft) 97,87 %
20.11.2023 05:02 10,8 C 10,0 C 7,2 C 94 % 1009,8 hPa 0,0 l/m 0 min 0 min 0 W/m 19,3 km/h (3 Bft) 93,62 %
20.11.2023 05:04 10,7 C 10,0 C 7,2 C 94 % 1009,8 hPa 0,0 l/m 0 min 0 min 0 W/m 25,7 km/h (4 Bft) 97,73 %
20.11.2023 05:08 10,7 C 10,0 C 7,2 C 94 % 1009,8 hPa 0,0 l/m 0 min 0 min 0 W/m 32,2 km/h (5 Bft) 98,02 %
20.11.2023 05:09 10,7 C 10,0 C 7,2 C 94 % 1009,9 hPa 0,0 l/m 0 min 0 min 0 W/m 16,1 km/h (3 Bft) 95,83 %
20.11.2023 05:12 10,7 C 10,0 C 7,2 C 94 % 1009,9 hPa 0,0 l/m 0 min 0 min 0 W/m 35,4 km/h (5 Bft) 97,14 %
20.11.2023 05:14 10,7 C 10,0 C 7,2 C 94 % 1009,9 hPa 0,0 l/m 0 min 0 min 0 W/m 32,2 km/h (5 Bft) 97,87 %
20.11.2023 05:16 10,6 C 10,0 C 7,2 C 94 % 1009,9 hPa 0,0 l/m 0 min 0 min 0 W/m 25,7 km/h (4 Bft) 95,74 %
20.11.2023 05:18 10,6 C 10,0 C 7,2 C 94 % 1009,9 hPa 0,0 l/m 0 min 0 min 0 W/m 16,1 km/h (3 Bft) 97,87 %
20.11.2023 05:20 10,6 C 10,0 C 7,2 C 94 % 1010,0 hPa 0,0 l/m 0 min 0 min 0 W/m 29,0 km/h (5 Bft) 97,83 %
20.11.2023 05:22 10,6 C 10,0 C 7,2 C 94 % 1010,0 hPa 0,0 l/m 0 min 0 min 0 W/m 19,3 km/h (3 Bft) 97,87 %
20.11.2023 05:24 10,6 C 10,0 C 6,7 C 94 % 1009,9 hPa 0,0 l/m 0 min 0 min 0 W/m 12,9 km/h (3 Bft) 97,87 %
20.11.2023 05:26 10,6 C 10,0 C 7,2 C 94 % 1010,0 hPa 0,0 l/m 0 min 0 min 0 W/m 16,1 km/h (3 Bft) 97,87 %
20.11.2023 05:28 10,6 C 10,0 C 7,2 C 94 % 1010,0 hPa 0,0 l/m 0 min 0 min 0 W/m 29,0 km/h (5 Bft) 95,74 %
20.11.2023 05:30 10,6 C 10,0 C 7,2 C 94 % 1010,0 hPa 0,0 l/m 0 min 0 min 0 W/m 16,1 km/h (3 Bft) 97,87 %
20.11.2023 05:32 10,6 C 10,0 C 7,2 C 94 % 1010,0 hPa 0,0 l/m 0 min 0 min 0 W/m 16,1 km/h (3 Bft) 97,87 %
20.11.2023 05:34 10,6 C 10,0 C 7,2 C 94 % 1010,0 hPa 0,0 l/m 0 min 0 min 0 W/m 12,9 km/h (3 Bft) 97,87 %
20.11.2023 05:36 10,6 C 10,0 C 7,2 C 94 % 1010,0 hPa 0,0 l/m 0 min 0 min 0 W/m 16,1 km/h (3 Bft) 97,83 %
20.11.2023 05:38 10,6 C 10,0 C 7,2 C 94 % 1010,0 hPa 0,0 l/m 0 min 0 min 0 W/m 19,3 km/h (3 Bft) 100,00 %
20.11.2023 05:40 10,6 C 10,0 C 7,2 C 94 % 1009,9 hPa 0,0 l/m 0 min 0 min 0 W/m 16,1 km/h (3 Bft) 97,87 %
20.11.2023 05:42 10,6 C 10,0 C 7,2 C 94 % 1010,0 hPa 0,0 l/m 0 min 0 min 0 W/m 19,3 km/h (3 Bft) 97,87 %
20.11.2023 05:44 10,6 C 10,0 C 7,2 C 94 % 1009,9 hPa 0,0 l/m 0 min 0 min 0 W/m 16,1 km/h (3 Bft) 98,00 %
20.11.2023 05:46 10,6 C 10,0 C 7,2 C 94 % 1009,9 hPa 0,0 l/m 0 min 0 min 0 W/m 12,9 km/h (3 Bft) 97,22 %
20.11.2023 05:48 10,6 C 10,0 C 7,2 C 94 % 1009,8 hPa 0,0 l/m 0 min 0 min 0 W/m 12,9 km/h (3 Bft) 97,87 %
20.11.2023 05:50 10,6 C 10,0 C 7,2 C 94 % 1009,8 hPa 0,0 l/m 0 min 0 min 0 W/m 12,9 km/h (3 Bft) 93,62 %
20.11.2023 05:52 10,6 C 10,0 C 7,2 C 94 % 1009,8 hPa 0,0 l/m 0 min 0 min 0 W/m 19,3 km/h (3 Bft) 97,87 %
20.11.2023 05:54 10,6 C 10,0 C 7,2 C 94 % 1009,7 hPa 0,0 l/m 0 min 0 min 0 W/m 19,3 km/h (3 Bft) 97,83 %
20.11.2023 05:56 10,6 C 10,0 C 7,2 C 94 % 1009,7 hPa 0,0 l/m 0 min 0 min 0 W/m 19,3 km/h (3 Bft) 98,00 %
20.11.2023 05:58 10,6 C 10,0 C 7,2 C 94 % 1009,7 hPa 0,0 l/m 0 min 0 min 0 W/m 12,9 km/h (3 Bft) 97,87 %
20.11.2023 06:00 10,6 C 10,0 C 7,2 C 94 % 1009,7 hPa 0,0 l/m 0 min 0 min 0 W/m 22,5 km/h (4 Bft) 97,87 %
20.11.2023 06:02 10,6 C 10,0 C 7,2 C 94 % 1009,7 hPa 0,0 l/m 0 min 0 min 0 W/m 16,1 km/h (3 Bft) 97,87 %
20.11.2023 06:04 10,6 C 10,0 C 7,2 C 94 % 1009,8 hPa 0,0 l/m 0 min 0 min 0 W/m 25,7 km/h (4 Bft) 97,73 %
20.11.2023 06:10 10,6 C 10,0 C 7,2 C 94 % 1009,7 hPa 0,0 l/m 0 min 0 min 0 W/m 22,5 km/h (4 Bft) 96,45 %
20.11.2023 06:12 10,6 C 10,0 C 7,2 C 94 % 1009,7 hPa 0,0 l/m 0 min 0 min 0 W/m 16,1 km/h (3 Bft) 97,87 %
20.11.2023 06:16 10,6 C 10,0 C 7,2 C 94 % 1009,8 hPa 0,0 l/m 0 min 0 min 0 W/m 16,1 km/h (3 Bft) 100,00 %
20.11.2023 06:18 10,6 C 10,0 C 7,2 C 94 % 1009,9 hPa 0,0 l/m 0 min 0 min 0 W/m 19,3 km/h (3 Bft) 100,00 %
20.11.2023 06:20 10,6 C 10,0 C 7,2 C 94 % 1009,8 hPa 0,0 l/m 0 min 0 min 0 W/m 16,1 km/h (3 Bft) 98,18 %
20.11.2023 06:22 10,6 C 10,0 C 7,2 C 94 % 1009,8 hPa 0,0 l/m 0 min 0 min 0 W/m 16,1 km/h (3 Bft) 97,87 %
20.11.2023 06:24 10,6 C 10,0 C 7,2 C 94 % 1009,8 hPa 0,0 l/m 0 min 0 min 0 W/m 22,5 km/h (4 Bft) 97,87 %
20.11.2023 06:26 10,6 C 10,0 C 7,2 C 94 % 1009,8 hPa 0,0 l/m 0 min 0 min 0 W/m 16,1 km/h (3 Bft) 97,87 %
20.11.2023 06:28 10,6 C 10,0 C 7,2 C 94 % 1009,8 hPa 0,0 l/m 0 min 0 min 0 W/m 25,7 km/h (4 Bft) 95,74 %
20.11.2023 06:30 10,6 C 10,0 C 7,2 C 94 % 1009,7 hPa 0,0 l/m 0 min 0 min 0 W/m 22,5 km/h (4 Bft) 97,83 %
20.11.2023 06:32 10,6 C 10,0 C 7,2 C 94 % 1009,8 hPa 0,0 l/m 0 min 0 min 0 W/m 16,1 km/h (3 Bft) 97,87 %
20.11.2023 06:34 10,6 C 10,0 C 7,2 C 94 % 1009,7 hPa 0,0 l/m 0 min 0 min 0 W/m 16,1 km/h (3 Bft) 97,87 %
20.11.2023 06:36 10,6 C 10,0 C 7,2 C 94 % 1009,7 hPa 0,0 l/m 0 min 0 min 0 W/m 19,3 km/h (3 Bft) 97,87 %
20.11.2023 06:38 10,6 C 10,0 C 7,2 C 94 % 1009,8 hPa 0,0 l/m 0 min 0 min 0 W/m 22,5 km/h (4 Bft) 95,74 %
20.11.2023 06:40 10,6 C 10,0 C 7,2 C 94 % 1009,8 hPa 0,0 l/m 0 min 0 min 0 W/m 12,9 km/h (3 Bft) 95,74 %
20.11.2023 06:42 10,6 C 10,0 C 7,2 C 94 % 1009,8 hPa 0,0 l/m 0 min 0 min 0 W/m 16,1 km/h (3 Bft) 97,87 %
20.11.2023 06:44 10,6 C 10,0 C 7,2 C 94 % 1009,8 hPa 0,0 l/m 0 min 0 min 0 W/m 16,1 km/h (3 Bft) 97,83 %
20.11.2023 06:46 10,6 C 10,0 C 7,2 C 94 % 1009,8 hPa 0,0 l/m 0 min 0 min 0 W/m 22,5 km/h (4 Bft) 95,74 %
20.11.2023 06:48 10,6 C 10,0 C 7,2 C 94 % 1009,8 hPa 0,0 l/m 0 min 0 min 0 W/m 12,9 km/h (3 Bft) 97,87 %
20.11.2023 06:50 10,6 C 10,0 C 7,2 C 94 % 1009,8 hPa 0,0 l/m 0 min 0 min 0 W/m 19,3 km/h (3 Bft) 95,74 %
20.11.2023 06:52 10,6 C 10,0 C 7,2 C 94 % 1009,7 hPa 0,0 l/m 0 min 0 min 0 W/m 16,1 km/h (3 Bft) 97,87 %
20.11.2023 06:54 10,6 C 10,0 C 7,2 C 94 % 1009,8 hPa 0,0 l/m 0 min 0 min 0 W/m 19,3 km/h (3 Bft) 97,87 %
20.11.2023 06:56 10,6 C 10,0 C 7,2 C 94 % 1009,8 hPa 0,0 l/m 0 min 0 min 0 W/m 19,3 km/h (3 Bft) 97,87 %
20.11.2023 06:58 10,6 C 10,0 C 7,2 C 94 % 1009,8 hPa 0,0 l/m 0 min 0 min 0 W/m 25,7 km/h (4 Bft) 95,83 %
20.11.2023 07:00 10,6 C 10,0 C 7,2 C 94 % 1009,8 hPa 0,0 l/m 0 min 0 min 0 W/m 12,9 km/h (3 Bft) 100,00 %
20.11.2023 07:02 10,6 C 10,0 C 7,2 C 94 % 1009,8 hPa 0,0 l/m 0 min 0 min 0 W/m 22,5 km/h (4 Bft) 96,55 %
20.11.2023 07:04 10,6 C 10,0 C 7,2 C 94 % 1009,9 hPa 0,0 l/m 0 min 0 min 0 W/m 22,5 km/h (4 Bft) 97,73 %
20.11.2023 07:10 10,6 C 10,0 C 7,2 C 93 % 1010,0 hPa 0,0 l/m 0 min 0 min 0 W/m 19,3 km/h (3 Bft) 99,22 %
20.11.2023 07:12 10,6 C 10,0 C 7,2 C 93 % 1010,0 hPa 0,0 l/m 0 min 0 min 0 W/m 22,5 km/h (4 Bft) 100,00 %
20.11.2023 07:14 10,6 C 10,0 C 7,2 C 93 % 1009,9 hPa 0,0 l/m 0 min 0 min 0 W/m 19,3 km/h (3 Bft) 100,00 %
20.11.2023 07:16 10,6 C 10,0 C 7,2 C 93 % 1010,0 hPa 0,0 l/m 0 min 0 min 0 W/m 32,2 km/h (5 Bft) 100,00 %
20.11.2023 07:18 10,6 C 10,0 C 7,2 C 93 % 1010,0 hPa 0,0 l/m 0 min 0 min 0 W/m 16,1 km/h (3 Bft) 97,87 %
20.11.2023 07:20 10,6 C 10,0 C 7,2 C 93 % 1010,0 hPa 0,0 l/m 0 min 0 min 0 W/m 12,9 km/h (3 Bft) 100,00 %
20.11.2023 07:22 10,6 C 10,0 C 7,2 C 93 % 1010,1 hPa 0,0 l/m 0 min 0 min 0 W/m 22,5 km/h (4 Bft) 100,00 %
20.11.2023 07:24 10,6 C 10,0 C 7,2 C 93 % 1010,1 hPa 0,0 l/m 0 min 0 min 0 W/m 16,1 km/h (3 Bft) 100,00 %
20.11.2023 07:26 10,6 C 10,0 C 7,2 C 93 % 1010,1 hPa 0,0 l/m 0 min 0 min 0 W/m 22,5 km/h (4 Bft) 100,00 %
20.11.2023 07:28 10,6 C 10,0 C 7,2 C 93 % 1010,1 hPa 0,0 l/m 0 min 0 min 0 W/m 19,3 km/h (3 Bft) 100,00 %
20.11.2023 07:30 10,6 C 10,0 C 7,2 C 93 % 1010,1 hPa 0,0 l/m 0 min 0 min 0 W/m 19,3 km/h (3 Bft) 100,00 %
20.11.2023 07:32 10,6 C 10,0 C 7,2 C 93 % 1010,1 hPa 0,0 l/m 0 min 0 min 0 W/m 16,1 km/h (3 Bft) 100,00 %
20.11.2023 07:34 10,6 C 10,0 C 7,2 C 93 % 1010,2 hPa 0,0 l/m 0 min 0 min 0 W/m 22,5 km/h (4 Bft) 100,00 %
20.11.2023 07:36 10,5 C 10,0 C 7,2 C 93 % 1010,1 hPa 0,0 l/m 0 min 0 min 0 W/m 22,5 km/h (4 Bft) 97,87 %
20.11.2023 07:38 10,5 C 10,0 C 7,2 C 93 % 1010,1 hPa 0,0 l/m 0 min 0 min 0 W/m 12,9 km/h (3 Bft) 100,00 %
20.11.2023 07:40 10,5 C 10,0 C 7,2 C 93 % 1010,2 hPa 0,0 l/m 0 min 0 min 0 W/m 12,9 km/h (3 Bft) 95,74 %
20.11.2023 07:42 10,5 C 10,0 C 7,2 C 93 % 1010,1 hPa 0,0 l/m 0 min 0 min 0 W/m 16,1 km/h (3 Bft) 95,65 %
20.11.2023 07:44 10,5 C 10,0 C 7,2 C 93 % 1010,2 hPa 0,0 l/m 0 min 0 min 0 W/m 16,1 km/h (3 Bft) 95,74 %
20.11.2023 07:46 10,4 C 10,0 C 7,2 C 93 % 1010,1 hPa 0,0 l/m 0 min 0 min 0 W/m 12,9 km/h (3 Bft) 95,74 %
20.11.2023 07:48 10,4 C 10,0 C 7,2 C 93 % 1010,2 hPa 0,0 l/m 0 min 0 min 0 W/m 16,1 km/h (3 Bft) 95,74 %
20.11.2023 07:50 10,4 C 10,0 C 7,2 C 93 % 1010,2 hPa 0,0 l/m 0 min 0 min 0 W/m 22,5 km/h (4 Bft) 93,62 %
20.11.2023 07:52 10,4 C 10,0 C 7,2 C 93 % 1010,2 hPa 0,0 l/m 0 min 0 min 0 W/m 16,1 km/h (3 Bft) 93,62 %
20.11.2023 07:54 10,4 C 9,4 C 7,2 C 93 % 1010,3 hPa 0,0 l/m 0 min 0 min 0 W/m 16,1 km/h (3 Bft) 96,23 %
20.11.2023 07:56 10,4 C 9,4 C 7,2 C 93 % 1010,2 hPa 0,0 l/m 0 min 0 min 0 W/m 16,1 km/h (3 Bft) 95,74 %
20.11.2023 07:58 10,4 C 9,4 C 7,2 C 93 % 1010,2 hPa 0,0 l/m 0 min 0 min 0 W/m 16,1 km/h (3 Bft) 95,65 %
20.11.2023 08:00 10,3 C 9,4 C 7,2 C 93 % 1010,2 hPa 0,0 l/m 0 min 0 min 0 W/m 12,9 km/h (3 Bft) 95,74 %
20.11.2023 08:02 10,3 C 9,4 C 7,2 C 93 % 1010,2 hPa 0,0 l/m 0 min 0 min 2 W/m 19,3 km/h (3 Bft) 93,62 %
20.11.2023 08:04 10,3 C 9,4 C 7,2 C 93 % 1010,2 hPa 0,0 l/m 0 min 0 min 5 W/m 16,1 km/h (3 Bft) 95,74 %
20.11.2023 08:06 10,3 C 9,4 C 6,7 C 93 % 1010,3 hPa 0,0 l/m 0 min 0 min 5 W/m 16,1 km/h (3 Bft) 89,36 %
20.11.2023 08:08 10,3 C 9,4 C 6,7 C 93 % 1010,2 hPa 0,0 l/m 0 min 0 min 5 W/m 19,3 km/h (3 Bft) 93,62 %
20.11.2023 08:10 10,2 C 9,4 C 6,7 C 93 % 1010,3 hPa 0,0 l/m 0 min 0 min 6 W/m 19,3 km/h (3 Bft) 95,65 %
20.11.2023 08:12 10,2 C 9,4 C 6,7 C 93 % 1010,4 hPa 0,0 l/m 0 min 0 min 7 W/m 12,9 km/h (3 Bft) 97,87 %
20.11.2023 08:14 10,2 C 9,4 C 6,7 C 93 % 1010,5 hPa 0,0 l/m 0 min 0 min 8 W/m 22,5 km/h (4 Bft) 97,87 %
20.11.2023 08:16 10,2 C 9,4 C 6,7 C 93 % 1010,5 hPa 0,0 l/m 0 min 0 min 12 W/m 16,1 km/h (3 Bft) 97,87 %
20.11.2023 08:18 10,2 C 9,4 C 6,7 C 93 % 1010,5 hPa 0,0 l/m 0 min 0 min 14 W/m 19,3 km/h (3 Bft) 97,87 %
20.11.2023 08:20 10,2 C 9,4 C 7,2 C 93 % 1010,5 hPa 0,0 l/m 0 min 0 min 16 W/m 25,7 km/h (4 Bft) 95,74 %
20.11.2023 08:22 10,2 C 9,4 C 7,2 C 93 % 1010,5 hPa 0,0 l/m 0 min 0 min 16 W/m 19,3 km/h (3 Bft) 95,74 %
20.11.2023 08:24 10,2 C 9,4 C 7,2 C 93 % 1010,5 hPa 0,0 l/m 0 min 0 min 13 W/m 19,3 km/h (3 Bft) 95,74 %
20.11.2023 08:26 10,2 C 9,4 C 7,2 C 93 % 1010,5 hPa 0,0 l/m 0 min 0 min 12 W/m 16,1 km/h (3 Bft) 97,83 %
20.11.2023 08:28 10,2 C 9,4 C 7,2 C 93 % 1010,5 hPa 0,0 l/m 0 min 0 min 12 W/m 12,9 km/h (3 Bft) 97,87 %
20.11.2023 08:30 10,2 C 10,0 C 7,2 C 93 % 1010,6 hPa 0,0 l/m 0 min 0 min 14 W/m 12,9 km/h (3 Bft) 95,74 %
20.11.2023 08:32 10,2 C 10,0 C 7,2 C 93 % 1010,6 hPa 0,0 l/m 0 min 0 min 14 W/m 16,1 km/h (3 Bft) 97,87 %
20.11.2023 08:34 10,3 C 10,0 C 7,2 C 93 % 1010,6 hPa 0,0 l/m 0 min 0 min 11 W/m 12,9 km/h (3 Bft) 100,00 %
20.11.2023 08:36 10,3 C 10,0 C 7,2 C 93 % 1010,7 hPa 0,0 l/m 0 min 2 min 9 W/m 16,1 km/h (3 Bft) 100,00 %
20.11.2023 08:38 10,3 C 10,0 C 7,2 C 93 % 1010,7 hPa 0,0 l/m 0 min 0 min 11 W/m 19,3 km/h (3 Bft) 100,00 %
20.11.2023 08:40 10,3 C 10,0 C 7,2 C 93 % 1010,6 hPa 0,0 l/m 0 min 0 min 11 W/m 12,9 km/h (3 Bft) 100,00 %
20.11.2023 08:42 10,3 C 10,0 C 6,7 C 93 % 1010,7 hPa 0,0 l/m 0 min 0 min 11 W/m 12,9 km/h (3 Bft) 100,00 %
20.11.2023 08:44 10,3 C 9,4 C 6,7 C 93 % 1010,7 hPa 0,0 l/m 0 min 0 min 12 W/m 29,0 km/h (5 Bft) 100,00 %
20.11.2023 08:46 10,3 C 9,4 C 6,7 C 93 % 1010,6 hPa 0,0 l/m 0 min 0 min 12 W/m 12,9 km/h (3 Bft) 97,87 %
20.11.2023 08:48 10,3 C 10,0 C 6,7 C 93 % 1010,6 hPa 0,0 l/m 0 min 0 min 16 W/m 16,1 km/h (3 Bft) 100,00 %
20.11.2023 08:50 10,3 C 10,0 C 6,7 C 93 % 1010,7 hPa 0,0 l/m 0 min 0 min 19 W/m 16,1 km/h (3 Bft) 97,87 %
20.11.2023 08:52 10,3 C 10,0 C 6,7 C 93 % 1010,6 hPa 0,0 l/m 0 min 0 min 22 W/m 12,9 km/h (3 Bft) 100,00 %
20.11.2023 08:54 10,3 C 10,0 C 6,7 C 93 % 1010,7 hPa 0,0 l/m 0 min 0 min 25 W/m 12,9 km/h (3 Bft) 97,87 %
20.11.2023 08:56 10,3 C 10,0 C 6,7 C 93 % 1010,6 hPa 0,0 l/m 0 min 0 min 27 W/m 12,9 km/h (3 Bft) 97,83 %
20.11.2023 08:58 10,3 C 10,0 C 6,7 C 93 % 1010,7 hPa 0,0 l/m 0 min 0 min 26 W/m 19,3 km/h (3 Bft) 97,87 %
20.11.2023 09:00 10,3 C 10,0 C 6,7 C 93 % 1010,7 hPa 0,0 l/m 0 min 0 min 29 W/m 22,5 km/h (4 Bft) 97,87 %
20.11.2023 09:02 10,3 C 10,0 C 6,7 C 93 % 1010,7 hPa 0,0 l/m 0 min 0 min 38 W/m 16,1 km/h (3 Bft) 95,56 %
20.11.2023 09:04 10,3 C 10,0 C 6,7 C 93 % 1010,7 hPa 0,0 l/m 0 min 0 min 30 W/m 12,9 km/h (3 Bft) 97,96 %
20.11.2023 09:08 10,3 C 10,0 C 6,7 C 93 % 1010,8 hPa 0,0 l/m 0 min 0 min 24 W/m 16,1 km/h (3 Bft) 97,92 %
20.11.2023 09:09 10,3 C 9,4 C 6,7 C 93 % 1010,8 hPa 0,0 l/m 0 min 0 min 23 W/m 16,1 km/h (3 Bft) 95,65 %
20.11.2023 09:12 10,3 C 9,4 C 6,7 C 92 % 1010,8 hPa 0,0 l/m 0 min 0 min 31 W/m 16,1 km/h (3 Bft) 98,59 %
20.11.2023 09:14 10,2 C 10,0 C 6,7 C 92 % 1010,8 hPa 0,0 l/m 0 min 0 min 39 W/m 16,1 km/h (3 Bft) 95,74 %
20.11.2023 09:16 10,2 C 9,4 C 6,7 C 93 % 1010,8 hPa 0,0 l/m 0 min 0 min 39 W/m 6,4 km/h (2 Bft) 95,65 %
20.11.2023 09:18 10,2 C 10,0 C 6,7 C 92 % 1010,8 hPa 0,0 l/m 0 min 0 min 55 W/m 25,7 km/h (4 Bft) 97,87 %
20.11.2023 09:20 10,2 C 10,0 C 7,2 C 93 % 1010,8 hPa 0,0 l/m 0 min 0 min 55 W/m 16,1 km/h (3 Bft) 97,87 %
20.11.2023 09:22 10,2 C 10,0 C 7,2 C 93 % 1010,8 hPa 0,0 l/m 0 min 0 min 45 W/m 19,3 km/h (3 Bft) 97,87 %
20.11.2023 09:24 10,3 C 10,0 C 7,2 C 93 % 1010,7 hPa 0,0 l/m 0 min 0 min 46 W/m 19,3 km/h (3 Bft) 97,87 %
20.11.2023 09:26 10,3 C 10,0 C 7,2 C 93 % 1010,7 hPa 0,0 l/m 0 min 0 min 73 W/m 12,9 km/h (3 Bft) 97,87 %
20.11.2023 09:28 10,3 C 10,0 C 7,2 C 93 % 1010,8 hPa 0,0 l/m 0 min 0 min 81 W/m 16,1 km/h (3 Bft) 97,87 %
20.11.2023 09:30 10,3 C 10,0 C 7,2 C 93 % 1010,8 hPa 0,0 l/m 0 min 0 min 84 W/m 6,4 km/h (2 Bft) 97,87 %
20.11.2023 09:32 10,3 C 10,0 C 7,2 C 93 % 1010,8 hPa 0,0 l/m 2 min 0 min 92 W/m 6,4 km/h (2 Bft) 97,83 %
20.11.2023 09:34 10,4 C 10,0 C 7,2 C 93 % 1010,8 hPa 0,0 l/m 0 min 0 min 71 W/m 19,3 km/h (3 Bft) 97,87 %
20.11.2023 09:36 10,4 C 10,0 C 7,2 C 93 % 1010,8 hPa 0,0 l/m 0 min 0 min 59 W/m 22,5 km/h (4 Bft) 95,74 %
20.11.2023 09:38 10,4 C 10,0 C 7,2 C 93 % 1010,8 hPa 0,0 l/m 0 min 0 min 55 W/m 16,1 km/h (3 Bft) 95,74 %
20.11.2023 09:40 10,4 C 10,0 C 7,2 C 93 % 1010,8 hPa 0,0 l/m 0 min 0 min 64 W/m 16,1 km/h (3 Bft) 95,74 %
20.11.2023 09:42 10,4 C 10,0 C 7,2 C 93 % 1010,7 hPa 0,0 l/m 0 min 0 min 62 W/m 19,3 km/h (3 Bft) 95,74 %
20.11.2023 09:44 10,5 C 10,0 C 7,2 C 93 % 1010,8 hPa 0,0 l/m 0 min 0 min 63 W/m 12,9 km/h (3 Bft) 93,62 %
20.11.2023 09:46 10,5 C 10,0 C 7,2 C 93 % 1010,8 hPa 0,0 l/m 0 min 0 min 59 W/m 16,1 km/h (3 Bft) 97,87 %
20.11.2023 09:48 10,5 C 10,0 C 7,2 C 93 % 1010,7 hPa 0,0 l/m 0 min 0 min 56 W/m 12,9 km/h (3 Bft) 100,00 %
20.11.2023 09:50 10,5 C 10,0 C 7,2 C 93 % 1010,7 hPa 0,0 l/m 0 min 0 min 41 W/m 16,1 km/h (3 Bft) 97,62 %
20.11.2023 09:52 10,6 C 10,0 C 7,2 C 93 % 1010,6 hPa 0,0 l/m 0 min 0 min 39 W/m 12,9 km/h (3 Bft) 97,87 %
20.11.2023 09:54 10,6 C 10,0 C 7,2 C 93 % 1010,6 hPa 0,0 l/m 0 min 0 min 70 W/m 16,1 km/h (3 Bft) 98,04 %
20.11.2023 09:56 10,6 C 10,0 C 7,2 C 92 % 1010,5 hPa 0,0 l/m 0 min 0 min 77 W/m 16,1 km/h (3 Bft) 97,83 %
20.11.2023 09:58 10,6 C 10,6 C 7,2 C 93 % 1010,6 hPa 0,0 l/m 0 min 0 min 69 W/m 6,4 km/h (2 Bft) 97,87 %
20.11.2023 10:00 10,6 C 10,6 C 7,2 C 93 % 1010,5 hPa 0,0 l/m 0 min 0 min 86 W/m 6,4 km/h (2 Bft) 97,87 %
20.11.2023 10:02 10,6 C 10,6 C 7,2 C 93 % 1010,6 hPa 0,0 l/m 2 min 0 min 148 W/m 12,9 km/h (3 Bft) 97,87 %
20.11.2023 10:04 10,6 C 10,6 C 7,8 C 92 % 1010,6 hPa 0,0 l/m 0 min 0 min 77 W/m 3,2 km/h (1 Bft) 97,87 %
20.11.2023 10:07 10,7 C 10,6 C 7,2 C 92 % 1010,6 hPa 0,0 l/m 0 min 0 min 33 W/m 6,4 km/h (2 Bft) 97,30 %
20.11.2023 10:08 10,7 C 10,6 C 7,2 C 92 % 1010,6 hPa 0,0 l/m 0 min 0 min 25 W/m 16,1 km/h (3 Bft) 100,00 %
20.11.2023 10:12 10,7 C 10,0 C 7,2 C 92 % 1010,6 hPa 0,0 l/m 0 min 0 min 48 W/m 12,9 km/h (3 Bft) 100,00 %
20.11.2023 10:14 10,7 C 10,6 C 7,2 C 92 % 1010,6 hPa 0,0 l/m 0 min 0 min 72 W/m 16,1 km/h (3 Bft) 100,00 %
20.11.2023 10:16 10,7 C 10,6 C 7,2 C 92 % 1010,6 hPa 0,0 l/m 0 min 2 min 72 W/m 12,9 km/h (3 Bft) 100,00 %
20.11.2023 10:18 10,7 C 10,0 C 7,2 C 92 % 1010,5 hPa 0,0 l/m 0 min 2 min 63 W/m 22,5 km/h (4 Bft) 100,00 %
20.11.2023 10:20 10,7 C 10,0 C 7,2 C 92 % 1010,6 hPa 0,0 l/m 0 min 2 min 51 W/m 19,3 km/h (3 Bft) 100,00 %
20.11.2023 10:22 10,6 C 10,0 C 6,7 C 93 % 1010,6 hPa 0,0 l/m 0 min 0 min 64 W/m 12,9 km/h (3 Bft) 100,00 %
20.11.2023 10:24 10,6 C 10,0 C 6,7 C 93 % 1010,6 hPa 0,0 l/m 0 min 0 min 74 W/m 12,9 km/h (3 Bft) 97,83 %
20.11.2023 10:26 10,6 C 10,0 C 6,7 C 93 % 1010,6 hPa 0,0 l/m 0 min 0 min 45 W/m 19,3 km/h (3 Bft) 100,00 %
20.11.2023 10:28 10,6 C 10,0 C 6,7 C 93 % 1010,6 hPa 0,2 l/m 0 min 2 min 37 W/m 6,4 km/h (2 Bft) 100,00 %
20.11.2023 10:30 10,6 C 10,0 C 6,7 C 93 % 1010,6 hPa 0,0 l/m 0 min 2 min 41 W/m 12,9 km/h (3 Bft) 97,87 %
20.11.2023 10:32 10,6 C 10,0 C 6,7 C 94 % 1010,6 hPa 0,2 l/m 0 min 2 min 37 W/m 6,4 km/h (2 Bft) 100,00 %
20.11.2023 10:34 10,6 C 9,4 C 6,7 C 93 % 1010,6 hPa 0,0 l/m 0 min 2 min 39 W/m 12,9 km/h (3 Bft) 97,87 %
20.11.2023 10:36 10,6 C 10,0 C 6,7 C 94 % 1010,6 hPa 0,0 l/m 0 min 0 min 57 W/m 9,7 km/h (2 Bft) 97,87 %
20.11.2023 10:38 10,6 C 10,0 C 6,7 C 94 % 1010,6 hPa 0,0 l/m 0 min 0 min 56 W/m 16,1 km/h (3 Bft) 97,87 %
20.11.2023 10:40 10,5 C 10,0 C 6,7 C 94 % 1010,6 hPa 0,0 l/m 0 min 0 min 48 W/m 12,9 km/h (3 Bft) 97,83 %
20.11.2023 10:42 10,5 C 10,0 C 6,7 C 94 % 1010,6 hPa 0,0 l/m 0 min 0 min 66 W/m 12,9 km/h (3 Bft) 94,55 %
20.11.2023 10:44 10,5 C 10,0 C 6,7 C 94 % 1010,5 hPa 0,0 l/m 0 min 0 min 120 W/m 19,3 km/h (3 Bft) 97,87 %
20.11.2023 10:46 10,5 C 10,6 C 6,7 C 94 % 1010,5 hPa 0,0 l/m 2 min 0 min 156 W/m 16,1 km/h (3 Bft) 97,87 %
20.11.2023 10:48 10,5 C 10,6 C 6,7 C 95 % 1010,6 hPa 0,0 l/m 2 min 0 min 145 W/m 6,4 km/h (2 Bft) 93,62 %
20.11.2023 10:50 10,6 C 10,6 C 6,7 C 95 % 1010,5 hPa 0,0 l/m 0 min 0 min 135 W/m 19,3 km/h (3 Bft) 97,87 %
20.11.2023 10:52 10,6 C 10,6 C 6,7 C 95 % 1010,5 hPa 0,0 l/m 2 min 0 min 145 W/m 19,3 km/h (3 Bft) 97,83 %
20.11.2023 10:54 10,6 C 10,6 C 6,7 C 95 % 1010,5 hPa 0,0 l/m 0 min 0 min 129 W/m 19,3 km/h (3 Bft) 97,92 %
20.11.2023 10:56 10,6 C 10,6 C 6,7 C 95 % 1010,5 hPa 0,0 l/m 0 min 0 min 96 W/m 12,9 km/h (3 Bft) 95,74 %
20.11.2023 10:58 10,6 C 10,6 C 6,7 C 95 % 1010,5 hPa 0,0 l/m 0 min 0 min 57 W/m 12,9 km/h (3 Bft) 97,96 %
20.11.2023 11:00 10,6 C 10,0 C 6,7 C 95 % 1010,6 hPa 0,0 l/m 0 min 0 min 56 W/m 16,1 km/h (3 Bft) 97,87 %
20.11.2023 11:02 10,6 C 10,0 C 6,7 C 95 % 1010,6 hPa 0,0 l/m 0 min 0 min 80 W/m 19,3 km/h (3 Bft) 89,36 %
20.11.2023 11:04 10,5 C 10,6 C 6,7 C 95 % 1010,6 hPa 0,0 l/m 0 min 0 min 101 W/m 16,1 km/h (3 Bft) 50,00 %
20.11.2023 11:08 10,6 C 10,6 C 6,7 C 95 % 1010,6 hPa 0,0 l/m 0 min 0 min 110 W/m 16,1 km/h (3 Bft) 96,88 %
20.11.2023 11:10 10,6 C 10,6 C 6,7 C 95 % 1010,6 hPa 0,0 l/m 0 min 0 min 58 W/m 19,3 km/h (3 Bft) 97,22 %
20.11.2023 11:12 10,6 C 10,6 C 6,7 C 95 % 1010,6 hPa 0,0 l/m 0 min 0 min 67 W/m 16,1 km/h (3 Bft) 97,87 %
20.11.2023 11:14 10,6 C 10,6 C 6,7 C 95 % 1010,6 hPa 0,0 l/m 0 min 0 min 77 W/m 16,1 km/h (3 Bft) 97,87 %
20.11.2023 11:16 10,6 C 10,6 C 6,7 C 95 % 1010,6 hPa 0,0 l/m 0 min 0 min 80 W/m 12,9 km/h (3 Bft) 95,65 %
20.11.2023 11:18 10,6 C 10,6 C 6,7 C 95 % 1010,5 hPa 0,0 l/m 0 min 0 min 82 W/m 16,1 km/h (3 Bft) 95,74 %
20.11.2023 11:20 10,6 C 10,6 C 6,7 C 95 % 1010,5 hPa 0,0 l/m 0 min 0 min 55 W/m 12,9 km/h (3 Bft) 97,87 %
20.11.2023 11:22 10,6 C 10,0 C 6,7 C 95 % 1010,5 hPa 0,0 l/m 0 min 0 min 40 W/m 12,9 km/h (3 Bft) 97,87 %
20.11.2023 11:24 10,6 C 10,0 C 6,7 C 95 % 1010,5 hPa 0,0 l/m 0 min 0 min 39 W/m 9,7 km/h (2 Bft) 97,87 %
20.11.2023 11:26 10,6 C 10,0 C 6,7 C 95 % 1010,4 hPa 0,0 l/m 0 min 2 min 41 W/m 9,7 km/h (2 Bft) 100,00 %
20.11.2023 11:28 10,6 C 10,6 C 6,7 C 95 % 1010,3 hPa 0,0 l/m 0 min 0 min 74 W/m 12,9 km/h (3 Bft) 100,00 %
20.11.2023 11:30 10,6 C 10,6 C 6,7 C 94 % 1010,4 hPa 0,0 l/m 2 min 0 min 160 W/m 16,1 km/h (3 Bft) 95,74 %
20.11.2023 11:32 10,6 C 11,1 C 7,2 C 94 % 1010,3 hPa 0,0 l/m 2 min 0 min 179 W/m 12,9 km/h (3 Bft) 95,74 %
20.11.2023 11:34 10,7 C 11,1 C 7,2 C 94 % 1010,3 hPa 0,0 l/m 0 min 0 min 150 W/m 12,9 km/h (3 Bft) 97,83 %
20.11.2023 11:36 10,7 C 11,1 C 7,2 C 94 % 1010,3 hPa 0,0 l/m 0 min 0 min 128 W/m 19,3 km/h (3 Bft) 95,74 %
20.11.2023 11:38 10,7 C 11,1 C 7,2 C 94 % 1010,2 hPa 0,0 l/m 0 min 0 min 85 W/m 35,4 km/h (5 Bft) 97,87 %
20.11.2023 11:40 10,8 C 10,6 C 7,2 C 94 % 1010,2 hPa 0,0 l/m 0 min 0 min 72 W/m 16,1 km/h (3 Bft) 97,87 %
20.11.2023 11:42 10,8 C 10,6 C 7,2 C 94 % 1010,3 hPa 0,0 l/m 0 min 0 min 70 W/m 12,9 km/h (3 Bft) 95,74 %
20.11.2023 11:44 10,8 C 10,6 C 6,7 C 94 % 1010,2 hPa 0,0 l/m 0 min 0 min 76 W/m 12,9 km/h (3 Bft) 95,74 %
20.11.2023 11:46 10,8 C 10,6 C 6,7 C 94 % 1010,2 hPa 0,0 l/m 0 min 0 min 69 W/m 22,5 km/h (4 Bft) 95,74 %
20.11.2023 11:48 10,8 C 10,6 C 6,7 C 93 % 1010,1 hPa 0,0 l/m 0 min 0 min 77 W/m 16,1 km/h (3 Bft) 95,74 %
20.11.2023 11:50 10,8 C 10,6 C 6,7 C 93 % 1010,1 hPa 0,0 l/m 0 min 0 min 83 W/m 12,9 km/h (3 Bft) 93,62 %
20.11.2023 11:52 10,8 C 10,6 C 6,7 C 93 % 1010,1 hPa 0,0 l/m 0 min 0 min 85 W/m 22,5 km/h (4 Bft) 95,74 %
20.11.2023 11:54 10,8 C 10,6 C 6,7 C 93 % 1010,1 hPa 0,0 l/m 0 min 0 min 84 W/m 16,1 km/h (3 Bft) 95,74 %
20.11.2023 11:56 10,8 C 10,6 C 6,7 C 93 % 1010,0 hPa 0,0 l/m 0 min 0 min 80 W/m 6,4 km/h (2 Bft) 93,62 %
20.11.2023 11:58 10,8 C 10,6 C 6,7 C 93 % 1010,0 hPa 0,0 l/m 0 min 0 min 75 W/m 16,1 km/h (3 Bft) 93,48 %
20.11.2023 12:00 10,8 C 10,6 C 6,7 C 93 % 1010,0 hPa 0,0 l/m 0 min 0 min 80 W/m 9,7 km/h (2 Bft) 95,74 %
20.11.2023 12:02 10,8 C 10,6 C 6,7 C 93 % 1010,0 hPa 0,0 l/m 0 min 0 min 90 W/m 25,7 km/h (4 Bft) 95,74 %
20.11.2023 12:04 10,8 C 10,6 C 6,7 C 93 % 1010,0 hPa 0,0 l/m 0 min 0 min 93 W/m 25,7 km/h (4 Bft) 98,08 %
20.11.2023 12:08 10,8 C 10,6 C 6,7 C 93 % 1009,8 hPa 0,0 l/m 0 min 0 min 79 W/m 12,9 km/h (3 Bft) 96,39 %
20.11.2023 12:10 10,8 C 10,6 C 6,7 C 92 % 1009,8 hPa 0,0 l/m 0 min 0 min 88 W/m 25,7 km/h (4 Bft) 95,74 %
20.11.2023 12:12 10,8 C 11,1 C 6,7 C 92 % 1009,8 hPa 0,0 l/m 0 min 0 min 108 W/m 22,5 km/h (4 Bft) 95,74 %
20.11.2023 12:16 10,9 C 11,1 C 7,2 C 92 % 1009,7 hPa 0,0 l/m 0 min 0 min 114 W/m 22,5 km/h (4 Bft) 96,81 %
20.11.2023 12:18 10,9 C 11,1 C 7,2 C 92 % 1009,7 hPa 0,0 l/m 0 min 0 min 110 W/m 19,3 km/h (3 Bft) 95,74 %
20.11.2023 12:20 10,9 C 11,1 C 7,2 C 92 % 1009,7 hPa 0,0 l/m 0 min 0 min 104 W/m 19,3 km/h (3 Bft) 97,83 %
20.11.2023 12:22 11,0 C 11,1 C 7,2 C 92 % 1009,7 hPa 0,0 l/m 0 min 0 min 113 W/m 9,7 km/h (2 Bft) 95,74 %
20.11.2023 12:24 11,1 C 11,1 C 7,2 C 92 % 1009,7 hPa 0,0 l/m 0 min 0 min 122 W/m 12,9 km/h (3 Bft) 95,74 %
20.11.2023 12:26 11,1 C 11,1 C 7,2 C 92 % 1009,7 hPa 0,0 l/m 0 min 0 min 118 W/m 12,9 km/h (3 Bft) 100,00 %
20.11.2023 12:28 11,1 C 11,1 C 7,2 C 92 % 1009,7 hPa 0,0 l/m 0 min 0 min 114 W/m 16,1 km/h (3 Bft) 100,00 %
20.11.2023 12:30 11,1 C 11,1 C 7,2 C 91 % 1009,7 hPa 0,0 l/m 0 min 0 min 115 W/m 16,1 km/h (3 Bft) 100,00 %
20.11.2023 12:32 11,1 C 11,1 C 7,2 C 91 % 1009,7 hPa 0,0 l/m 0 min 0 min 109 W/m 16,1 km/h (3 Bft) 100,00 %
20.11.2023 12:34 11,1 C 11,1 C 7,2 C 91 % 1009,7 hPa 0,0 l/m 0 min 0 min 112 W/m 16,1 km/h (3 Bft) 100,00 %
20.11.2023 12:36 11,1 C 11,1 C 7,2 C 91 % 1009,8 hPa 0,0 l/m 0 min 0 min 115 W/m 29,0 km/h (5 Bft) 100,00 %
20.11.2023 12:38 11,1 C 11,1 C 7,2 C 91 % 1009,7 hPa 0,0 l/m 0 min 0 min 126 W/m 6,4 km/h (2 Bft) 100,00 %
20.11.2023 12:40 11,1 C 11,1 C 7,2 C 91 % 1009,7 hPa 0,0 l/m 0 min 0 min 135 W/m 6,4 km/h (2 Bft) 100,00 %
20.11.2023 12:42 11,1 C 11,7 C 7,2 C 91 % 1009,7 hPa 0,0 l/m 0 min 0 min 152 W/m 12,9 km/h (3 Bft) 97,83 %
20.11.2023 12:44 11,1 C 11,7 C 7,2 C 91 % 1009,8 hPa 0,0 l/m 0 min 0 min 161 W/m 19,3 km/h (3 Bft) 100,00 %
20.11.2023 12:46 11,2 C 11,7 C 7,2 C 91 % 1009,7 hPa 0,0 l/m 2 min 0 min 162 W/m 12,9 km/h (3 Bft) 97,87 %
20.11.2023 12:48 11,2 C 11,1 C 7,2 C 90 % 1009,7 hPa 0,0 l/m 0 min 0 min 142 W/m 29,0 km/h (5 Bft) 100,00 %
20.11.2023 12:50 11,2 C 11,1 C 7,2 C 90 % 1009,6 hPa 0,0 l/m 0 min 0 min 134 W/m 19,3 km/h (3 Bft) 100,00 %
20.11.2023 12:52 11,2 C 11,1 C 7,2 C 90 % 1009,6 hPa 0,0 l/m 0 min 0 min 129 W/m 19,3 km/h (3 Bft) 100,00 %
20.11.2023 12:54 11,2 C 11,1 C 7,2 C 90 % 1009,5 hPa 0,0 l/m 0 min 0 min 119 W/m 12,9 km/h (3 Bft) 100,00 %
20.11.2023 12:56 11,2 C 11,1 C 7,2 C 89 % 1009,5 hPa 0,0 l/m 0 min 0 min 111 W/m 19,3 km/h (3 Bft) 97,87 %
20.11.2023 12:58 11,2 C 11,1 C 7,2 C 89 % 1009,6 hPa 0,0 l/m 0 min 0 min 103 W/m 29,0 km/h (5 Bft) 97,96 %
20.11.2023 13:00 11,2 C 11,1 C 7,2 C 89 % 1009,6 hPa 0,0 l/m 0 min 0 min 102 W/m 16,1 km/h (3 Bft) 100,00 %
20.11.2023 13:02 11,2 C 11,1 C 7,8 C 89 % 1009,6 hPa 0,0 l/m 0 min 0 min 105 W/m 19,3 km/h (3 Bft) 100,00 %
20.11.2023 13:04 11,2 C 11,1 C 7,8 C 89 % 1009,6 hPa 0,0 l/m 0 min 0 min 110 W/m 22,5 km/h (4 Bft) 100,00 %
20.11.2023 13:06 11,2 C 11,1 C 7,8 C 89 % 1009,6 hPa 0,0 l/m 0 min 0 min 114 W/m 22,5 km/h (4 Bft) 100,00 %
20.11.2023 13:08 11,2 C 11,1 C 7,8 C 89 % 1009,6 hPa 0,0 l/m 0 min 0 min 124 W/m 22,5 km/h (4 Bft) 100,00 %
20.11.2023 13:10 11,2 C 11,1 C 7,8 C 89 % 1009,5 hPa 0,0 l/m 0 min 0 min 137 W/m 22,5 km/h (4 Bft) 100,00 %
20.11.2023 13:12 11,2 C 11,1 C 7,8 C 89 % 1009,5 hPa 0,0 l/m 0 min 0 min 133 W/m 12,9 km/h (3 Bft) 100,00 %
20.11.2023 13:14 11,3 C 11,1 C 7,8 C 89 % 1009,5 hPa 0,0 l/m 0 min 0 min 123 W/m 12,9 km/h (3 Bft) 100,00 %
20.11.2023 13:16 11,3 C 11,1 C 7,8 C 89 % 1009,5 hPa 0,0 l/m 0 min 0 min 106 W/m 19,3 km/h (3 Bft) 97,87 %
20.11.2023 13:18 11,3 C 11,1 C 7,8 C 89 % 1009,6 hPa 0,0 l/m 0 min 0 min 98 W/m 16,1 km/h (3 Bft) 100,00 %
20.11.2023 13:20 11,3 C 11,7 C 7,8 C 89 % 1009,6 hPa 0,0 l/m 0 min 0 min 129 W/m 12,9 km/h (3 Bft) 100,00 %
20.11.2023 13:22 11,3 C 11,7 C 7,8 C 89 % 1009,5 hPa 0,0 l/m 0 min 0 min 121 W/m 12,9 km/h (3 Bft) 100,00 %
20.11.2023 13:24 11,3 C 11,1 C 7,8 C 89 % 1009,5 hPa 0,0 l/m 0 min 0 min 100 W/m 16,1 km/h (3 Bft) 100,00 %
20.11.2023 13:26 11,3 C 11,1 C 7,8 C 89 % 1009,5 hPa 0,0 l/m 0 min 0 min 79 W/m 12,9 km/h (3 Bft) 100,00 %
20.11.2023 13:28 11,3 C 11,1 C 7,8 C 89 % 1009,4 hPa 0,0 l/m 0 min 0 min 80 W/m 9,7 km/h (2 Bft) 97,83 %
20.11.2023 13:30 11,3 C 11,1 C 7,8 C 89 % 1009,4 hPa 0,0 l/m 0 min 0 min 101 W/m 16,1 km/h (3 Bft) 97,87 %
20.11.2023 13:32 11,3 C 11,1 C 7,8 C 89 % 1009,4 hPa 0,0 l/m 0 min 0 min 100 W/m 12,9 km/h (3 Bft) 95,74 %
20.11.2023 13:34 11,3 C 11,1 C 7,8 C 89 % 1009,3 hPa 0,0 l/m 0 min 0 min 88 W/m 12,9 km/h (3 Bft) 93,62 %
20.11.2023 13:36 11,2 C 11,1 C 7,8 C 89 % 1009,3 hPa 0,0 l/m 0 min 0 min 87 W/m 12,9 km/h (3 Bft) 93,62 %
20.11.2023 13:38 11,2 C 11,1 C 7,8 C 89 % 1009,3 hPa 0,0 l/m 0 min 0 min 112 W/m 12,9 km/h (3 Bft) 95,74 %
20.11.2023 13:40 11,2 C 11,1 C 7,8 C 89 % 1009,3 hPa 0,0 l/m 0 min 0 min 140 W/m 16,1 km/h (3 Bft) 93,62 %
20.11.2023 13:42 11,3 C 11,7 C 7,8 C 89 % 1009,3 hPa 0,0 l/m 2 min 0 min 158 W/m 12,9 km/h (3 Bft) 95,74 %
20.11.2023 13:44 11,3 C 12,8 C 7,8 C 89 % 1009,2 hPa 0,0 l/m 2 min 0 min 299 W/m 12,9 km/h (3 Bft) 95,74 %
20.11.2023 13:46 11,4 C 12,8 C 7,8 C 89 % 1009,1 hPa 0,0 l/m 2 min 0 min 180 W/m 9,7 km/h (2 Bft) 95,74 %
20.11.2023 13:48 11,4 C 12,2 C 7,8 C 89 % 1009,2 hPa 0,0 l/m 0 min 0 min 129 W/m 12,9 km/h (3 Bft) 95,74 %
20.11.2023 13:50 11,4 C 12,2 C 7,8 C 88 % 1009,1 hPa 0,0 l/m 0 min 0 min 121 W/m 16,1 km/h (3 Bft) 95,65 %
20.11.2023 13:52 11,4 C 11,7 C 7,8 C 88 % 1009,1 hPa 0,0 l/m 2 min 0 min 142 W/m 9,7 km/h (2 Bft) 93,62 %
20.11.2023 13:54 11,4 C 11,7 C 7,8 C 88 % 1009,2 hPa 0,0 l/m 2 min 0 min 142 W/m 9,7 km/h (2 Bft) 93,62 %
20.11.2023 13:56 11,4 C 11,7 C 7,8 C 88 % 1009,1 hPa 0,0 l/m 0 min 0 min 119 W/m 12,9 km/h (3 Bft) 95,74 %
20.11.2023 13:58 11,5 C 11,7 C 8,3 C 88 % 1009,1 hPa 0,0 l/m 0 min 0 min 125 W/m 16,1 km/h (3 Bft) 95,74 %
20.11.2023 14:00 11,5 C 11,7 C 8,3 C 88 % 1009,0 hPa 0,0 l/m 0 min 0 min 98 W/m 22,5 km/h (4 Bft) 96,00 %
20.11.2023 14:02 11,4 C 11,1 C 7,8 C 88 % 1009,0 hPa 0,0 l/m 0 min 0 min 77 W/m 19,3 km/h (3 Bft) 93,62 %
20.11.2023 14:04 11,4 C 11,1 C 7,8 C 87 % 1009,0 hPa 0,0 l/m 0 min 0 min 57 W/m 19,3 km/h (3 Bft) 97,73 %
20.11.2023 14:06 11,4 C 11,1 C 7,8 C 87 % 1009,0 hPa 0,0 l/m 0 min 0 min 53 W/m 19,3 km/h (3 Bft) 93,62 %
20.11.2023 14:08 11,4 C 11,1 C 7,8 C 87 % 1008,9 hPa 0,0 l/m 0 min 0 min 72 W/m 6,4 km/h (2 Bft) 97,83 %
20.11.2023 14:10 11,4 C 11,1 C 7,8 C 87 % 1008,9 hPa 0,0 l/m 0 min 0 min 75 W/m 22,5 km/h (4 Bft) 93,62 %
20.11.2023 14:12 11,4 C 11,1 C 7,8 C 87 % 1008,9 hPa 0,0 l/m 0 min 0 min 72 W/m 16,1 km/h (3 Bft) 97,87 %
20.11.2023 14:14 11,3 C 11,1 C 7,8 C 87 % 1008,9 hPa 0,0 l/m 0 min 0 min 80 W/m 16,1 km/h (3 Bft) 97,87 %
20.11.2023 14:16 11,3 C 11,1 C 7,8 C 87 % 1008,9 hPa 0,0 l/m 0 min 0 min 65 W/m 16,1 km/h (3 Bft) 98,11 %
20.11.2023 14:18 11,3 C 11,1 C 7,8 C 87 % 1009,0 hPa 0,0 l/m 0 min 0 min 51 W/m 12,9 km/h (3 Bft) 97,87 %
20.11.2023 14:20 11,3 C 10,6 C 7,8 C 87 % 1008,9 hPa 0,0 l/m 0 min 0 min 47 W/m 16,1 km/h (3 Bft) 100,00 %
20.11.2023 14:22 11,3 C 10,6 C 7,8 C 87 % 1009,0 hPa 0,0 l/m 0 min 0 min 61 W/m 16,1 km/h (3 Bft) 100,00 %
20.11.2023 14:24 11,3 C 11,1 C 7,8 C 88 % 1009,0 hPa 0,0 l/m 0 min 0 min 88 W/m 12,9 km/h (3 Bft) 100,00 %
20.11.2023 14:26 11,3 C 11,1 C 7,8 C 88 % 1008,9 hPa 0,0 l/m 0 min 2 min 117 W/m 16,1 km/h (3 Bft) 97,87 %
20.11.2023 14:28 11,3 C 11,1 C 7,8 C 88 % 1009,0 hPa 0,0 l/m 2 min 2 min 121 W/m 22,5 km/h (4 Bft) 97,83 %
20.11.2023 14:30 11,2 C 11,1 C 7,8 C 88 % 1008,9 hPa 0,0 l/m 0 min 0 min 114 W/m 29,0 km/h (5 Bft) 97,87 %
20.11.2023 14:32 11,2 C 11,1 C 7,8 C 88 % 1008,9 hPa 0,0 l/m 0 min 0 min 110 W/m 19,3 km/h (3 Bft) 97,87 %
20.11.2023 14:34 11,2 C 10,6 C 7,8 C 88 % 1008,9 hPa 0,0 l/m 0 min 0 min 104 W/m 12,9 km/h (3 Bft) 97,87 %
20.11.2023 14:36 11,1 C 10,6 C 7,8 C 88 % 1008,9 hPa 0,0 l/m 0 min 0 min 91 W/m 12,9 km/h (3 Bft) 97,87 %
20.11.2023 14:38 11,1 C 10,6 C 7,8 C 88 % 1008,9 hPa 0,0 l/m 0 min 0 min 81 W/m 9,7 km/h (2 Bft) 95,74 %
20.11.2023 14:40 11,1 C 10,6 C 7,8 C 88 % 1008,9 hPa 0,0 l/m 0 min 0 min 76 W/m 16,1 km/h (3 Bft) 97,87 %
20.11.2023 14:42 11,0 C 10,6 C 7,8 C 88 % 1008,9 hPa 0,0 l/m 0 min 0 min 62 W/m 19,3 km/h (3 Bft) 97,87 %
20.11.2023 14:44 11,0 C 10,6 C 7,2 C 88 % 1008,9 hPa 0,0 l/m 0 min 0 min 40 W/m 19,3 km/h (3 Bft) 95,74 %
20.11.2023 14:46 11,0 C 10,6 C 7,2 C 88 % 1008,9 hPa 0,0 l/m 0 min 0 min 31 W/m 12,9 km/h (3 Bft) 100,00 %
20.11.2023 14:48 10,9 C 10,6 C 7,2 C 88 % 1008,9 hPa 0,0 l/m 0 min 0 min 29 W/m 6,4 km/h (2 Bft) 97,87 %
20.11.2023 14:50 10,9 C 10,0 C 7,2 C 89 % 1008,9 hPa 0,0 l/m 0 min 0 min 28 W/m 3,2 km/h (1 Bft) 95,74 %
20.11.2023 14:52 10,9 C 10,0 C 7,2 C 89 % 1008,9 hPa 0,0 l/m 0 min 0 min 28 W/m 12,9 km/h (3 Bft) 95,74 %
20.11.2023 14:54 10,8 C 10,0 C 7,2 C 89 % 1008,9 hPa 0,0 l/m 0 min 0 min 31 W/m 16,1 km/h (3 Bft) 97,87 %
20.11.2023 14:56 10,8 C 10,0 C 7,2 C 89 % 1008,9 hPa 0,0 l/m 0 min 0 min 35 W/m 12,9 km/h (3 Bft) 93,48 %
20.11.2023 14:58 10,8 C 10,0 C 7,2 C 89 % 1008,9 hPa 0,0 l/m 0 min 0 min 40 W/m 12,9 km/h (3 Bft) 97,96 %
20.11.2023 15:00 10,8 C 10,0 C 7,2 C 89 % 1008,9 hPa 0,0 l/m 0 min 0 min 42 W/m 6,4 km/h (2 Bft) 97,92 %
20.11.2023 15:02 10,7 C 10,0 C 7,2 C 89 % 1008,9 hPa 0,0 l/m 0 min 0 min 40 W/m 9,7 km/h (2 Bft) 95,74 %
20.11.2023 15:04 10,7 C 10,0 C 7,2 C 90 % 1009,0 hPa 0,0 l/m 0 min 0 min 39 W/m 6,4 km/h (2 Bft) 97,96 %
20.11.2023 15:07 10,7 C 10,0 C 7,2 C 90 % 1008,9 hPa 0,0 l/m 0 min 0 min 36 W/m 6,4 km/h (2 Bft) 97,18 %
20.11.2023 15:08 10,7 C 10,0 C 6,7 C 90 % 1008,9 hPa 0,0 l/m 0 min 0 min 35 W/m 6,4 km/h (2 Bft) 100,00 %
20.11.2023 15:12 10,6 C 10,0 C 6,7 C 90 % 1009,0 hPa 0,0 l/m 0 min 0 min 34 W/m 9,7 km/h (2 Bft) 96,77 %
20.11.2023 15:14 10,6 C 10,0 C 6,7 C 90 % 1009,0 hPa 0,0 l/m 0 min 0 min 32 W/m 12,9 km/h (3 Bft) 97,87 %
20.11.2023 15:16 10,6 C 10,0 C 6,7 C 90 % 1009,0 hPa 0,0 l/m 0 min 0 min 33 W/m 3,2 km/h (1 Bft) 93,62 %
20.11.2023 15:18 10,5 C 10,0 C 6,7 C 90 % 1008,9 hPa 0,0 l/m 0 min 0 min 36 W/m 16,1 km/h (3 Bft) 97,87 %
20.11.2023 15:20 10,5 C 10,0 C 6,7 C 90 % 1008,9 hPa 0,0 l/m 0 min 0 min 36 W/m 6,4 km/h (2 Bft) 100,00 %
20.11.2023 15:22 10,4 C 10,0 C 6,7 C 90 % 1008,9 hPa 0,0 l/m 0 min 0 min 34 W/m 6,4 km/h (2 Bft) 100,00 %
20.11.2023 15:24 10,4 C 10,0 C 6,7 C 91 % 1009,0 hPa 0,0 l/m 0 min 0 min 32 W/m 9,7 km/h (2 Bft) 100,00 %
20.11.2023 15:26 10,4 C 9,4 C 6,7 C 90 % 1008,9 hPa 0,0 l/m 0 min 0 min 32 W/m 6,4 km/h (2 Bft) 100,00 %
20.11.2023 15:28 10,4 C 9,4 C 6,7 C 91 % 1009,0 hPa 0,0 l/m 0 min 0 min 33 W/m 12,9 km/h (3 Bft) 97,87 %
20.11.2023 15:30 10,3 C 9,4 C 6,7 C 91 % 1009,0 hPa 0,0 l/m 0 min 0 min 35 W/m 3,2 km/h (1 Bft) 97,87 %
20.11.2023 15:32 10,3 C 9,4 C 6,7 C 91 % 1009,0 hPa 0,0 l/m 0 min 0 min 34 W/m 12,9 km/h (3 Bft) 97,83 %
20.11.2023 15:34 10,3 C 9,4 C 6,7 C 91 % 1009,0 hPa 0,0 l/m 0 min 0 min 31 W/m 3,2 km/h (1 Bft) 97,87 %
20.11.2023 15:36 10,3 C 9,4 C 6,7 C 91 % 1009,0 hPa 0,0 l/m 0 min 0 min 30 W/m 6,4 km/h (2 Bft) 97,87 %
20.11.2023 15:38 10,3 C 9,4 C 6,7 C 91 % 1008,9 hPa 0,0 l/m 0 min 0 min 28 W/m 6,4 km/h (2 Bft) 95,74 %
20.11.2023 15:40 10,3 C 9,4 C 6,7 C 91 % 1009,0 hPa 0,0 l/m 0 min 0 min 26 W/m 12,9 km/h (3 Bft) 97,87 %
20.11.2023 15:42 10,3 C 9,4 C 6,7 C 91 % 1008,9 hPa 0,0 l/m 0 min 0 min 24 W/m 12,9 km/h (3 Bft) 97,87 %
20.11.2023 15:44 10,3 C 9,4 C 6,7 C 91 % 1009,0 hPa 0,0 l/m 0 min 0 min 21 W/m 6,4 km/h (2 Bft) 97,87 %
20.11.2023 15:46 10,3 C 9,4 C 6,7 C 92 % 1009,0 hPa 0,0 l/m 0 min 0 min 15 W/m 3,2 km/h (1 Bft) 97,87 %
20.11.2023 15:48 10,3 C 9,4 C 6,7 C 92 % 1008,9 hPa 0,0 l/m 0 min 0 min 12 W/m 3,2 km/h (1 Bft) 97,87 %
20.11.2023 15:50 10,3 C 9,4 C 6,7 C 92 % 1008,9 hPa 0,0 l/m 0 min 2 min 16 W/m 6,4 km/h (2 Bft) 94,44 %
20.11.2023 15:52 10,3 C 9,4 C 6,7 C 92 % 1008,9 hPa 0,0 l/m 0 min 2 min 19 W/m 3,2 km/h (1 Bft) 97,87 %
20.11.2023 15:54 10,3 C 9,4 C 6,1 C 92 % 1008,9 hPa 0,0 l/m 0 min 2 min 19 W/m 6,4 km/h (2 Bft) 97,87 %
20.11.2023 15:56 10,3 C 9,4 C 6,1 C 92 % 1008,9 hPa 0,0 l/m 0 min 0 min 17 W/m 6,4 km/h (2 Bft) 97,87 %
20.11.2023 15:58 10,3 C 9,4 C 6,1 C 92 % 1008,9 hPa 0,0 l/m 0 min 0 min 16 W/m 3,2 km/h (1 Bft) 97,87 %
20.11.2023 16:00 10,2 C 9,4 C 6,1 C 92 % 1008,9 hPa 0,0 l/m 0 min 0 min 15 W/m 3,2 km/h (1 Bft) 97,83 %
20.11.2023 16:02 10,2 C 9,4 C 6,1 C 92 % 1008,9 hPa 0,0 l/m 0 min 0 min 12 W/m 3,2 km/h (1 Bft) 97,87 %
20.11.2023 16:04 10,2 C 9,4 C 6,1 C 92 % 1008,9 hPa 0,0 l/m 0 min 0 min 11 W/m 6,4 km/h (2 Bft) 100,00 %
20.11.2023 16:06 10,2 C 9,4 C 6,1 C 92 % 1008,9 hPa 0,0 l/m 0 min 0 min 11 W/m 6,4 km/h (2 Bft) 100,00 %
20.11.2023 16:08 10,2 C 9,4 C 6,1 C 92 % 1008,9 hPa 0,0 l/m 0 min 0 min 12 W/m 3,2 km/h (1 Bft) 100,00 %
20.11.2023 16:10 10,2 C 9,4 C 6,1 C 92 % 1008,8 hPa 0,0 l/m 0 min 0 min 12 W/m 3,2 km/h (1 Bft) 100,00 %
20.11.2023 16:12 10,2 C 9,4 C 6,1 C 93 % 1008,8 hPa 0,0 l/m 0 min 0 min 13 W/m 3,2 km/h (1 Bft) 97,87 %
20.11.2023 16:14 10,2 C 9,4 C 6,1 C 93 % 1008,8 hPa 0,0 l/m 0 min 0 min 12 W/m 3,2 km/h (1 Bft) 100,00 %
20.11.2023 16:16 10,2 C 9,4 C 6,1 C 93 % 1008,7 hPa 0,0 l/m 0 min 0 min 12 W/m 3,2 km/h (1 Bft) 100,00 %
20.11.2023 16:18 10,1 C 9,4 C 6,1 C 93 % 1008,8 hPa 0,0 l/m 0 min 0 min 12 W/m 3,2 km/h (1 Bft) 97,87 %
20.11.2023 16:20 10,1 C 9,4 C 6,1 C 93 % 1008,7 hPa 0,0 l/m 0 min 0 min 11 W/m 6,4 km/h (2 Bft) 97,87 %
20.11.2023 16:22 10,1 C 9,4 C 6,1 C 93 % 1008,7 hPa 0,0 l/m 0 min 0 min 10 W/m 6,4 km/h (2 Bft) 97,22 %
20.11.2023 16:24 10,1 C 9,4 C 6,1 C 93 % 1008,7 hPa 0,0 l/m 0 min 0 min 8 W/m 6,4 km/h (2 Bft) 97,83 %
20.11.2023 16:26 10,1 C 9,4 C 6,1 C 93 % 1008,8 hPa 0,0 l/m 0 min 0 min 7 W/m 3,2 km/h (1 Bft) 97,87 %
20.11.2023 16:28 10,1 C 9,4 C 6,1 C 93 % 1008,8 hPa 0,0 l/m 0 min 0 min 6 W/m 3,2 km/h (1 Bft) 97,87 %
20.11.2023 16:30 10,1 C 8,9 C 6,1 C 93 % 1008,8 hPa 0,0 l/m 0 min 0 min 5 W/m 3,2 km/h (1 Bft) 97,87 %
20.11.2023 16:32 10,1 C 8,9 C 6,1 C 93 % 1008,7 hPa 0,0 l/m 0 min 0 min 0 W/m 6,4 km/h (2 Bft) 95,74 %
20.11.2023 16:34 10,1 C 8,9 C 6,1 C 93 % 1008,8 hPa 0,0 l/m 0 min 0 min 0 W/m 3,2 km/h (1 Bft) 97,87 %
20.11.2023 16:36 10,1 C 8,9 C 6,1 C 94 % 1008,7 hPa 0,0 l/m 0 min 0 min 0 W/m 3,2 km/h (1 Bft) 95,74 %
20.11.2023 16:38 10,0 C 8,9 C 6,1 C 94 % 1008,8 hPa 0,0 l/m 0 min 0 min 0 W/m 3,2 km/h (1 Bft) 97,87 %
20.11.2023 16:40 10,0 C 8,9 C 6,1 C 94 % 1008,8 hPa 0,0 l/m 0 min 0 min 0 W/m 3,2 km/h (1 Bft) 97,87 %
20.11.2023 16:42 10,0 C 8,9 C 6,1 C 94 % 1008,8 hPa 0,0 l/m 0 min 0 min 0 W/m 3,2 km/h (1 Bft) 97,87 %
20.11.2023 16:44 9,9 C 8,9 C 6,1 C 94 % 1008,8 hPa 0,0 l/m 0 min 0 min 0 W/m 3,2 km/h (1 Bft) 97,83 %
20.11.2023 16:46 9,9 C 8,9 C 6,1 C 94 % 1008,9 hPa 0,0 l/m 0 min 0 min 0 W/m 0,0 km/h (0 Bft) 97,87 %
20.11.2023 16:48 9,9 C 8,9 C 6,1 C 94 % 1008,9 hPa 0,0 l/m 0 min 0 min 0 W/m 6,4 km/h (2 Bft) 95,74 %
20.11.2023 16:50 9,9 C 8,9 C 6,1 C 94 % 1008,8 hPa 0,0 l/m 0 min 0 min 0 W/m 6,4 km/h (2 Bft) 97,87 %
20.11.2023 16:52 9,9 C 8,9 C 6,1 C 94 % 1008,9 hPa 0,0 l/m 0 min 0 min 0 W/m 6,4 km/h (2 Bft) 95,74 %
20.11.2023 16:54 9,9 C 8,9 C 6,1 C 94 % 1008,9 hPa 0,0 l/m 0 min 0 min 0 W/m 6,4 km/h (2 Bft) 95,74 %
20.11.2023 16:56 9,9 C 8,9 C 6,1 C 94 % 1008,8 hPa 0,0 l/m 0 min 0 min 0 W/m 9,7 km/h (2 Bft) 95,74 %
20.11.2023 16:58 9,9 C 8,9 C 6,1 C 94 % 1008,8 hPa 0,0 l/m 0 min 0 min 0 W/m 12,9 km/h (3 Bft) 95,74 %
20.11.2023 17:00 9,9 C 8,9 C 6,1 C 94 % 1008,9 hPa 0,0 l/m 0 min 0 min 0 W/m 6,4 km/h (2 Bft) 93,62 %
20.11.2023 17:02 9,8 C 8,9 C 6,1 C 94 % 1008,8 hPa 0,0 l/m 0 min 0 min 0 W/m 3,2 km/h (1 Bft) 97,87 %
20.11.2023 17:04 9,8 C 8,9 C 6,1 C 94 % 1008,8 hPa 0,0 l/m 0 min 0 min 0 W/m 6,4 km/h (2 Bft) 97,92 %
20.11.2023 17:08 9,8 C 8,9 C 6,1 C 94 % 1008,8 hPa 0,0 l/m 0 min 0 min 0 W/m 6,4 km/h (2 Bft) 95,10 %
20.11.2023 17:09 9,8 C 8,9 C 6,1 C 94 % 1008,8 hPa 0,0 l/m 0 min 0 min 0 W/m 0,0 km/h (0 Bft) 100,00 %
20.11.2023 17:10 9,8 C 8,9 C 6,1 C 94 % 1008,8 hPa 0,0 l/m 0 min 0 min 0 W/m 3,2 km/h (1 Bft) 97,37 %
20.11.2023 17:14 9,8 C 8,9 C 6,1 C 94 % 1008,9 hPa 0,0 l/m 0 min 0 min 0 W/m 6,4 km/h (2 Bft) 97,87 %
20.11.2023 17:16 9,8 C 8,9 C 6,1 C 94 % 1008,9 hPa 0,0 l/m 0 min 2 min 0 W/m 3,2 km/h (1 Bft) 97,87 %
20.11.2023 17:18 9,8 C 8,9 C 6,1 C 94 % 1008,9 hPa 0,0 l/m 0 min 2 min 0 W/m 6,4 km/h (2 Bft) 100,00 %
20.11.2023 17:20 9,8 C 8,9 C 6,1 C 94 % 1008,8 hPa 0,0 l/m 0 min 2 min 0 W/m 6,4 km/h (2 Bft) 97,87 %
20.11.2023 17:22 9,8 C 8,9 C 6,1 C 94 % 1008,8 hPa 0,0 l/m 0 min 2 min 0 W/m 6,4 km/h (2 Bft) 93,62 %
20.11.2023 17:24 9,7 C 8,9 C 6,1 C 94 % 1008,9 hPa 0,0 l/m 0 min 2 min 0 W/m 6,4 km/h (2 Bft) 95,74 %
20.11.2023 17:26 9,7 C 8,9 C 6,1 C 94 % 1008,8 hPa 0,0 l/m 0 min 0 min 0 W/m 6,4 km/h (2 Bft) 95,74 %
20.11.2023 17:28 9,7 C 8,9 C 6,1 C 94 % 1008,8 hPa 0,0 l/m 0 min 0 min 0 W/m 6,4 km/h (2 Bft) 95,74 %
20.11.2023 17:30 9,7 C 8,9 C 6,1 C 94 % 1008,9 hPa 0,0 l/m 0 min 0 min 0 W/m 3,2 km/h (1 Bft) 95,74 %
20.11.2023 17:32 9,7 C 8,9 C 6,1 C 94 % 1008,8 hPa 0,0 l/m 0 min 0 min 0 W/m 6,4 km/h (2 Bft) 95,74 %
20.11.2023 17:34 9,7 C 8,9 C 6,1 C 94 % 1008,8 hPa 0,0 l/m 0 min 0 min 0 W/m 0,0 km/h (0 Bft) 93,62 %
20.11.2023 17:36 9,7 C 8,9 C 6,1 C 95 % 1008,8 hPa 0,0 l/m 0 min 0 min 0 W/m 0,0 km/h (0 Bft) 95,65 %
20.11.2023 17:38 9,7 C 8,9 C 6,1 C 95 % 1008,8 hPa 0,0 l/m 0 min 0 min 0 W/m 3,2 km/h (1 Bft) 93,62 %
20.11.2023 17:40 9,7 C 8,9 C 6,1 C 95 % 1008,8 hPa 0,0 l/m 0 min 0 min 0 W/m 3,2 km/h (1 Bft) 95,74 %
20.11.2023 17:42 9,7 C 8,9 C 6,1 C 94 % 1008,8 hPa 0,0 l/m 0 min 0 min 0 W/m 3,2 km/h (1 Bft) 95,74 %
20.11.2023 17:44 9,7 C 8,9 C 6,1 C 95 % 1008,8 hPa 0,0 l/m 0 min 0 min 0 W/m 0,0 km/h (0 Bft) 93,62 %
20.11.2023 17:46 9,7 C 8,9 C 6,1 C 95 % 1008,8 hPa 0,0 l/m 0 min 0 min 0 W/m 0,0 km/h (0 Bft) 91,49 %
20.11.2023 17:48 9,7 C 8,9 C 6,1 C 95 % 1008,8 hPa 0,0 l/m 0 min 0 min 0 W/m 3,2 km/h (1 Bft) 95,74 %
20.11.2023 17:50 9,6 C 8,3 C 5,6 C 94 % 1008,8 hPa 0,0 l/m 0 min 0 min 0 W/m 0,0 km/h (0 Bft) 93,62 %
20.11.2023 17:52 9,6 C 8,3 C 5,6 C 94 % 1008,8 hPa 0,0 l/m 0 min 0 min 0 W/m 0,0 km/h (0 Bft) 95,65 %
20.11.2023 17:54 9,6 C 8,3 C 5,6 C 94 % 1008,8 hPa 0,0 l/m 0 min 0 min 0 W/m 0,0 km/h (0 Bft) 100,00 %
20.11.2023 17:56 9,6 C 8,3 C 5,6 C 94 % 1008,8 hPa 0,0 l/m 0 min 0 min 0 W/m 0,0 km/h (0 Bft) 95,74 %
20.11.2023 17:58 9,6 C 8,3 C 5,6 C 94 % 1008,8 hPa 0,0 l/m 0 min 0 min 0 W/m 0,0 km/h (0 Bft) 100,00 %
20.11.2023 18:00 9,6 C 8,3 C 5,6 C 94 % 1008,8 hPa 0,0 l/m 0 min 0 min 0 W/m 0,0 km/h (0 Bft) 100,00 %
20.11.2023 18:02 9,6 C 8,3 C 5,6 C 94 % 1008,9 hPa 0,0 l/m 0 min 0 min 0 W/m 3,2 km/h (1 Bft) 97,87 %
20.11.2023 18:04 9,6 C 8,3 C 5,6 C 94 % 1008,8 hPa 0,0 l/m 0 min 0 min 0 W/m 0,0 km/h (0 Bft) 100,00 %
20.11.2023 18:08 9,5 C 8,3 C 5,6 C 94 % 1008,8 hPa 0,0 l/m 0 min 0 min 0 W/m 3,2 km/h (1 Bft) 97,80 %
20.11.2023 18:10 9,5 C 8,3 C 5,6 C 94 % 1008,8 hPa 0,0 l/m 0 min 0 min 0 W/m 3,2 km/h (1 Bft) 100,00 %
20.11.2023 18:12 9,5 C 8,3 C 5,6 C 95 % 1008,8 hPa 0,0 l/m 0 min 2 min 0 W/m 3,2 km/h (1 Bft) 100,00 %
20.11.2023 18:16 9,5 C 8,3 C 5,6 C 95 % 1008,8 hPa 0,0 l/m 0 min 4 min 0 W/m 0,0 km/h (0 Bft) 98,92 %
20.11.2023 18:18 9,5 C 8,3 C 5,6 C 95 % 1008,9 hPa 0,0 l/m 0 min 0 min 0 W/m 0,0 km/h (0 Bft) 100,00 %
20.11.2023 18:20 9,5 C 8,3 C 5,6 C 95 % 1008,9 hPa 0,0 l/m 0 min 0 min 0 W/m 3,2 km/h (1 Bft) 97,87 %
20.11.2023 18:22 9,4 C 8,3 C 5,6 C 95 % 1008,8 hPa 0,0 l/m 0 min 0 min 0 W/m 0,0 km/h (0 Bft) 100,00 %
20.11.2023 18:24 9,4 C 8,3 C 5,6 C 95 % 1008,9 hPa 0,0 l/m 0 min 0 min 0 W/m 3,2 km/h (1 Bft) 100,00 %
20.11.2023 18:26 9,4 C 8,3 C 5,6 C 95 % 1008,9 hPa 0,0 l/m 0 min 0 min 0 W/m 0,0 km/h (0 Bft) 97,87 %
20.11.2023 18:28 9,4 C 8,3 C 5,6 C 95 % 1008,9 hPa 0,0 l/m 0 min 2 min 0 W/m 0,0 km/h (0 Bft) 97,87 %
20.11.2023 18:30 9,4 C 8,3 C 5,6 C 95 % 1008,9 hPa 0,0 l/m 0 min 2 min 0 W/m 3,2 km/h (1 Bft) 100,00 %
20.11.2023 18:32 9,4 C 8,3 C 5,6 C 95 % 1008,9 hPa 0,0 l/m 0 min 2 min 0 W/m 3,2 km/h (1 Bft) 97,87 %
20.11.2023 18:34 9,4 C 8,3 C 5,6 C 95 % 1008,9 hPa 0,0 l/m 0 min 0 min 0 W/m 3,2 km/h (1 Bft) 100,00 %
20.11.2023 18:36 9,4 C 8,3 C 5,6 C 95 % 1008,9 hPa 0,0 l/m 0 min 0 min 0 W/m 3,2 km/h (1 Bft) 100,00 %
20.11.2023 18:38 9,4 C 8,3 C 5,6 C 95 % 1008,9 hPa 0,0 l/m 0 min 0 min 0 W/m 6,4 km/h (2 Bft) 95,74 %
20.11.2023 18:40 9,4 C 8,3 C 5,6 C 95 % 1008,9 hPa 0,0 l/m 0 min 0 min 0 W/m 3,2 km/h (1 Bft) 100,00 %
20.11.2023 18:42 9,4 C 8,3 C 5,6 C 95 % 1008,9 hPa 0,0 l/m 0 min 0 min 0 W/m 6,4 km/h (2 Bft) 100,00 %
20.11.2023 18:44 9,4 C 8,3 C 5,6 C 95 % 1008,9 hPa 0,0 l/m 0 min 2 min 0 W/m 3,2 km/h (1 Bft) 97,87 %
20.11.2023 18:46 9,4 C 8,3 C 5,6 C 95 % 1008,9 hPa 0,0 l/m 0 min 2 min 0 W/m 3,2 km/h (1 Bft) 97,87 %
20.11.2023 18:48 9,3 C 8,3 C 5,6 C 95 % 1008,8 hPa 0,0 l/m 0 min 0 min 0 W/m 3,2 km/h (1 Bft) 100,00 %
20.11.2023 18:50 9,3 C 8,3 C 5,6 C 95 % 1008,8 hPa 0,0 l/m 0 min 0 min 0 W/m 3,2 km/h (1 Bft) 97,83 %
20.11.2023 18:52 9,3 C 8,3 C 5,6 C 95 % 1008,8 hPa 0,0 l/m 0 min 0 min 0 W/m 6,4 km/h (2 Bft) 100,00 %
20.11.2023 18:54 9,3 C 8,3 C 5,6 C 95 % 1008,8 hPa 0,0 l/m 0 min 0 min 0 W/m 3,2 km/h (1 Bft) 97,96 %
20.11.2023 18:56 9,3 C 8,3 C 5,6 C 95 % 1008,8 hPa 0,0 l/m 0 min 0 min 0 W/m 0,0 km/h (0 Bft) 97,87 %
20.11.2023 18:58 9,3 C 8,3 C 5,6 C 95 % 1008,8 hPa 0,0 l/m 0 min 0 min 0 W/m 0,0 km/h (0 Bft) 100,00 %
20.11.2023 19:00 9,2 C 8,3 C 5,6 C 95 % 1008,8 hPa 0,0 l/m 0 min 0 min 0 W/m 0,0 km/h (0 Bft) 100,00 %
20.11.2023 19:02 9,2 C 8,3 C 5,6 C 95 % 1008,7 hPa 0,0 l/m 0 min 0 min 0 W/m 6,4 km/h (2 Bft) 100,00 %
20.11.2023 19:04 9,2 C 8,3 C 5,6 C 95 % 1008,7 hPa 0,0 l/m 0 min 0 min 0 W/m 3,2 km/h (1 Bft) 97,78 %
20.11.2023 19:06 9,2 C 8,3 C 5,6 C 95 % 1008,7 hPa 0,0 l/m 0 min 0 min 0 W/m 3,2 km/h (1 Bft) 97,87 %
20.11.2023 19:08 9,2 C 8,3 C 5,6 C 95 % 1008,7 hPa 0,0 l/m 0 min 0 min 0 W/m 3,2 km/h (1 Bft) 100,00 %
20.11.2023 19:10 9,2 C 8,3 C 5,6 C 95 % 1008,7 hPa 0,0 l/m 0 min 0 min 0 W/m 3,2 km/h (1 Bft) 100,00 %
20.11.2023 19:12 9,1 C 8,3 C 5,6 C 95 % 1008,7 hPa 0,0 l/m 0 min 0 min 0 W/m 3,2 km/h (1 Bft) 97,87 %
20.11.2023 19:14 9,1 C 8,3 C 5,6 C 96 % 1008,6 hPa 0,0 l/m 0 min 0 min 0 W/m 3,2 km/h (1 Bft) 97,87 %
20.11.2023 19:16 9,1 C 8,3 C 5,6 C 95 % 1008,6 hPa 0,0 l/m 0 min 0 min 0 W/m 3,2 km/h (1 Bft) 97,83 %
20.11.2023 19:18 9,1 C 8,3 C 5,6 C 95 % 1008,6 hPa 0,0 l/m 0 min 0 min 0 W/m 3,2 km/h (1 Bft) 97,87 %
20.11.2023 19:20 9,1 C 7,8 C 5,6 C 95 % 1008,6 hPa 0,0 l/m 0 min 0 min 0 W/m 3,2 km/h (1 Bft) 95,74 %
20.11.2023 19:22 9,1 C 7,8 C 5,6 C 95 % 1008,6 hPa 0,0 l/m 0 min 0 min 0 W/m 0,0 km/h (0 Bft) 95,74 %
20.11.2023 19:24 9,1 C 7,8 C 5,6 C 95 % 1008,6 hPa 0,0 l/m 0 min 0 min 0 W/m 6,4 km/h (2 Bft) 93,62 %
20.11.2023 19:26 9,0 C 7,8 C 5,0 C 96 % 1008,6 hPa 0,0 l/m 0 min 0 min 0 W/m 6,4 km/h (2 Bft) 95,74 %
20.11.2023 19:28 9,0 C 7,8 C 5,0 C 96 % 1008,6 hPa 0,0 l/m 0 min 0 min 0 W/m 6,4 km/h (2 Bft) 95,74 %
20.11.2023 19:30 8,9 C 7,8 C 5,0 C 96 % 1008,7 hPa 0,0 l/m 0 min 0 min 0 W/m 6,4 km/h (2 Bft) 95,74 %
20.11.2023 19:32 8,9 C 7,8 C 5,0 C 96 % 1008,7 hPa 0,0 l/m 0 min 0 min 0 W/m 6,4 km/h (2 Bft) 93,48 %
20.11.2023 19:34 8,9 C 7,8 C 5,0 C 96 % 1008,8 hPa 0,0 l/m 0 min 0 min 0 W/m 6,4 km/h (2 Bft) 95,74 %
20.11.2023 19:36 8,9 C 7,8 C 5,0 C 96 % 1008,8 hPa 0,0 l/m 0 min 0 min 0 W/m 6,4 km/h (2 Bft) 93,62 %
20.11.2023 19:38 8,8 C 7,8 C 5,0 C 96 % 1008,8 hPa 0,0 l/m 0 min 0 min 0 W/m 3,2 km/h (1 Bft) 89,36 %
20.11.2023 19:40 8,8 C 7,8 C 5,0 C 96 % 1008,9 hPa 0,0 l/m 0 min 0 min 0 W/m 3,2 km/h (1 Bft) 93,62 %
20.11.2023 19:42 8,8 C 7,8 C 5,0 C 96 % 1008,9 hPa 0,0 l/m 0 min 0 min 0 W/m 3,2 km/h (1 Bft) 95,74 %
20.11.2023 19:44 8,8 C 7,8 C 5,0 C 96 % 1008,9 hPa 0,0 l/m 0 min 0 min 0 W/m 3,2 km/h (1 Bft) 95,74 %
20.11.2023 19:46 8,8 C 7,8 C 5,0 C 96 % 1008,9 hPa 0,0 l/m 0 min 0 min 0 W/m 3,2 km/h (1 Bft) 95,74 %
20.11.2023 19:48 8,8 C 7,8 C 5,0 C 96 % 1008,9 hPa 0,0 l/m 0 min 0 min 0 W/m 0,0 km/h (0 Bft) 93,62 %
20.11.2023 19:50 8,8 C 7,8 C 5,0 C 96 % 1009,0 hPa 0,0 l/m 0 min 0 min 0 W/m 3,2 km/h (1 Bft) 95,65 %
20.11.2023 19:52 8,8 C 7,8 C 5,0 C 96 % 1009,0 hPa 0,2 l/m 0 min 0 min 0 W/m 0,0 km/h (0 Bft) 95,74 %
20.11.2023 19:54 8,7 C 7,8 C 5,0 C 96 % 1009,0 hPa 0,0 l/m 0 min 0 min 0 W/m 0,0 km/h (0 Bft) 95,74 %
20.11.2023 19:56 8,7 C 7,8 C 5,0 C 96 % 1008,9 hPa 0,0 l/m 0 min 0 min 0 W/m 3,2 km/h (1 Bft) 95,00 %
20.11.2023 19:58 8,7 C 7,8 C 5,0 C 96 % 1009,0 hPa 0,0 l/m 0 min 0 min 0 W/m 0,0 km/h (0 Bft) 95,45 %
20.11.2023 20:00 8,7 C 7,8 C 5,0 C 96 % 1008,9 hPa 0,0 l/m 0 min 0 min 0 W/m 0,0 km/h (0 Bft) 91,30 %
20.11.2023 20:02 8,7 C 7,8 C 5,0 C 96 % 1009,0 hPa 0,0 l/m 0 min 0 min 0 W/m 0,0 km/h (0 Bft) 96,43 %
20.11.2023 20:04 8,7 C 7,8 C 5,0 C 96 % 1009,0 hPa 0,0 l/m 0 min 0 min 0 W/m 0,0 km/h (0 Bft) 97,67 %
20.11.2023 20:08 8,6 C 7,8 C 5,0 C 96 % 1009,0 hPa 0,0 l/m 0 min 0 min 0 W/m 0,0 km/h (0 Bft) 95,15 %
20.11.2023 20:09 8,6 C 7,8 C 5,0 C 96 % 1009,0 hPa 0,0 l/m 0 min 0 min 0 W/m 0,0 km/h (0 Bft) 91,67 %
20.11.2023 20:10 8,6 C 7,2 C 5,0 C 96 % 1009,0 hPa 0,0 l/m 0 min 0 min 0 W/m 0,0 km/h (0 Bft) 97,37 %
20.11.2023 20:14 8,6 C 7,2 C 5,0 C 96 % 1009,0 hPa 0,0 l/m 0 min 0 min 0 W/m 3,2 km/h (1 Bft) 94,83 %
20.11.2023 20:16 8,6 C 7,2 C 5,0 C 96 % 1009,0 hPa 0,0 l/m 0 min 0 min 0 W/m 3,2 km/h (1 Bft) 94,29 %
20.11.2023 20:18 8,6 C 7,2 C 5,0 C 96 % 1009,0 hPa 0,0 l/m 0 min 0 min 0 W/m 0,0 km/h (0 Bft) 97,92 %
20.11.2023 20:20 8,6 C 7,2 C 5,0 C 96 % 1009,0 hPa 0,0 l/m 0 min 0 min 0 W/m 0,0 km/h (0 Bft) 97,87 %
20.11.2023 20:22 8,5 C 7,2 C 5,0 C 96 % 1009,0 hPa 0,0 l/m 0 min 0 min 0 W/m 0,0 km/h (0 Bft) 100,00 %
20.11.2023 20:24 8,5 C 7,2 C 5,0 C 96 % 1009,0 hPa 0,0 l/m 0 min 0 min 0 W/m 0,0 km/h (0 Bft) 100,00 %
20.11.2023 20:26 8,5 C 7,2 C 5,0 C 96 % 1009,0 hPa 0,0 l/m 0 min 0 min 0 W/m 0,0 km/h (0 Bft) 100,00 %
20.11.2023 20:28 8,4 C 7,2 C 5,0 C 96 % 1009,0 hPa 0,0 l/m 0 min 0 min 0 W/m 0,0 km/h (0 Bft) 100,00 %
20.11.2023 20:30 8,5 C 7,2 C 5,0 C 96 % 1009,1 hPa 0,0 l/m 0 min 0 min 0 W/m 0,0 km/h (0 Bft) 100,00 %
20.11.2023 20:32 8,5 C 7,8 C 5,0 C 96 % 1009,0 hPa 0,0 l/m 0 min 0 min 0 W/m 0,0 km/h (0 Bft) 100,00 %
20.11.2023 20:34 8,5 C 7,8 C 5,0 C 96 % 1009,1 hPa 0,0 l/m 0 min 0 min 0 W/m 0,0 km/h (0 Bft) 100,00 %
20.11.2023 20:36 8,5 C 7,8 C 5,0 C 96 % 1009,1 hPa 0,0 l/m 0 min 0 min 0 W/m 0,0 km/h (0 Bft) 97,87 %
20.11.2023 20:38 8,5 C 7,8 C 5,0 C 96 % 1009,1 hPa 0,0 l/m 0 min 0 min 0 W/m 0,0 km/h (0 Bft) 100,00 %
20.11.2023 20:40 8,5 C 7,8 C 5,0 C 96 % 1009,1 hPa 0,0 l/m 0 min 0 min 0 W/m 3,2 km/h (1 Bft) 100,00 %
20.11.2023 20:42 8,5 C 7,8 C 5,0 C 96 % 1009,2 hPa 0,0 l/m 0 min 0 min 0 W/m 0,0 km/h (0 Bft) 95,74 %
20.11.2023 20:44 8,5 C 7,8 C 5,0 C 96 % 1009,1 hPa 0,0 l/m 0 min 0 min 0 W/m 0,0 km/h (0 Bft) 100,00 %
20.11.2023 20:46 8,5 C 7,8 C 5,0 C 96 % 1009,1 hPa 0,0 l/m 0 min 0 min 0 W/m 0,0 km/h (0 Bft) 100,00 %
20.11.2023 20:48 8,5 C 7,8 C 5,0 C 96 % 1009,2 hPa 0,0 l/m 0 min 0 min 0 W/m 0,0 km/h (0 Bft) 97,83 %
20.11.2023 20:50 8,6 C 7,8 C 5,0 C 96 % 1009,2 hPa 0,0 l/m 0 min 0 min 0 W/m 0,0 km/h (0 Bft) 100,00 %
20.11.2023 20:52 8,6 C 7,8 C 5,0 C 96 % 1009,2 hPa 0,0 l/m 0 min 0 min 0 W/m 0,0 km/h (0 Bft) 97,87 %
20.11.2023 20:54 8,6 C 7,8 C 5,0 C 96 % 1009,2 hPa 0,0 l/m 0 min 0 min 0 W/m 0,0 km/h (0 Bft) 100,00 %
20.11.2023 20:56 8,6 C 7,8 C 5,0 C 96 % 1009,2 hPa 0,0 l/m 0 min 0 min 0 W/m 0,0 km/h (0 Bft) 100,00 %
20.11.2023 20:58 8,7 C 7,8 C 5,0 C 96 % 1009,2 hPa 0,0 l/m 0 min 0 min 0 W/m 0,0 km/h (0 Bft) 100,00 %
20.11.2023 21:00 8,7 C 7,8 C 5,0 C 97 % 1009,2 hPa 0,0 l/m 0 min 0 min 0 W/m 0,0 km/h (0 Bft) 97,87 %
20.11.2023 21:02 8,7 C 7,8 C 5,0 C 97 % 1009,2 hPa 0,0 l/m 0 min 0 min 0 W/m 0,0 km/h (0 Bft) 95,65 %
20.11.2023 21:04 8,7 C 7,8 C 5,0 C 97 % 1009,2 hPa 0,0 l/m 0 min 0 min 0 W/m 0,0 km/h (0 Bft) 97,62 %
20.11.2023 21:08 8,8 C 8,3 C 5,0 C 97 % 1009,2 hPa 0,0 l/m 0 min 0 min 0 W/m 0,0 km/h (0 Bft) 97,31 %
20.11.2023 21:10 8,8 C 7,8 C 5,0 C 97 % 1009,2 hPa 0,0 l/m 0 min 0 min 0 W/m 0,0 km/h (0 Bft) 96,77 %
20.11.2023 21:12 8,8 C 8,3 C 5,0 C 97 % 1009,2 hPa 0,0 l/m 0 min 0 min 0 W/m 0,0 km/h (0 Bft) 97,87 %
20.11.2023 21:14 8,8 C 8,3 C 5,0 C 97 % 1009,3 hPa 0,0 l/m 0 min 0 min 0 W/m 0,0 km/h (0 Bft) 97,87 %
20.11.2023 21:16 8,8 C 7,8 C 5,0 C 97 % 1009,3 hPa 0,0 l/m 0 min 0 min 0 W/m 0,0 km/h (0 Bft) 97,87 %
20.11.2023 21:18 8,8 C 7,8 C 5,0 C 97 % 1009,3 hPa 0,0 l/m 0 min 0 min 0 W/m 0,0 km/h (0 Bft) 98,11 %
20.11.2023 21:20 8,9 C 7,8 C 5,0 C 97 % 1009,4 hPa 0,0 l/m 0 min 0 min 0 W/m 0,0 km/h (0 Bft) 97,87 %
20.11.2023 21:22 8,9 C 7,8 C 5,0 C 97 % 1009,3 hPa 0,0 l/m 0 min 0 min 0 W/m 0,0 km/h (0 Bft) 97,87 %
20.11.2023 21:24 8,9 C 7,8 C 5,0 C 97 % 1009,3 hPa 0,0 l/m 0 min 0 min 0 W/m 0,0 km/h (0 Bft) 97,87 %
20.11.2023 21:26 8,9 C 7,8 C 5,0 C 97 % 1009,3 hPa 0,0 l/m 0 min 0 min 0 W/m 0,0 km/h (0 Bft) 97,87 %
20.11.2023 21:28 8,9 C 7,8 C 5,0 C 97 % 1009,3 hPa 0,0 l/m 0 min 0 min 0 W/m 0,0 km/h (0 Bft) 97,87 %
20.11.2023 21:30 8,9 C 8,3 C 5,0 C 97 % 1009,3 hPa 0,0 l/m 0 min 0 min 0 W/m 0,0 km/h (0 Bft) 100,00 %
20.11.2023 21:32 8,9 C 8,3 C 5,0 C 97 % 1009,3 hPa 0,0 l/m 0 min 0 min 0 W/m 0,0 km/h (0 Bft) 97,87 %
20.11.2023 21:34 8,9 C 7,8 C 5,0 C 97 % 1009,4 hPa 0,0 l/m 0 min 0 min 0 W/m 0,0 km/h (0 Bft) 97,87 %
20.11.2023 21:36 8,9 C 7,8 C 5,0 C 97 % 1009,3 hPa 0,0 l/m 0 min 0 min 0 W/m 0,0 km/h (0 Bft) 100,00 %
20.11.2023 21:38 8,8 C 7,8 C 5,0 C 97 % 1009,3 hPa 0,0 l/m 0 min 0 min 0 W/m 0,0 km/h (0 Bft) 100,00 %
20.11.2023 21:40 8,8 C 7,8 C 5,0 C 97 % 1009,3 hPa 0,0 l/m 0 min 0 min 0 W/m 0,0 km/h (0 Bft) 100,00 %
20.11.2023 21:42 8,8 C 7,8 C 5,0 C 97 % 1009,3 hPa 0,0 l/m 0 min 0 min 0 W/m 0,0 km/h (0 Bft) 100,00 %
20.11.2023 21:44 8,8 C 7,8 C 5,0 C 97 % 1009,3 hPa 0,0 l/m 0 min 0 min 0 W/m 0,0 km/h (0 Bft) 100,00 %
20.11.2023 21:46 8,8 C 7,8 C 5,0 C 97 % 1009,4 hPa 0,0 l/m 0 min 0 min 0 W/m 0,0 km/h (0 Bft) 100,00 %
20.11.2023 21:48 8,8 C 7,8 C 5,0 C 97 % 1009,3 hPa 0,0 l/m 0 min 0 min 0 W/m 0,0 km/h (0 Bft) 100,00 %
20.11.2023 21:50 8,8 C 7,8 C 5,0 C 97 % 1009,4 hPa 0,0 l/m 0 min 0 min 0 W/m 0,0 km/h (0 Bft) 98,00 %
20.11.2023 21:52 8,8 C 7,8 C 5,0 C 97 % 1009,4 hPa 0,0 l/m 0 min 0 min 0 W/m 0,0 km/h (0 Bft) 100,00 %
20.11.2023 21:54 8,8 C 8,3 C 5,0 C 97 % 1009,4 hPa 0,0 l/m 0 min 0 min 0 W/m 0,0 km/h (0 Bft) 100,00 %
20.11.2023 21:56 8,8 C 8,3 C 5,0 C 97 % 1009,4 hPa 0,0 l/m 0 min 0 min 0 W/m 0,0 km/h (0 Bft) 97,83 %
20.11.2023 21:58 8,8 C 8,3 C 5,6 C 97 % 1009,4 hPa 0,0 l/m 0 min 0 min 0 W/m 0,0 km/h (0 Bft) 100,00 %
20.11.2023 22:00 8,8 C 8,3 C 5,6 C 97 % 1009,4 hPa 0,0 l/m 0 min 0 min 0 W/m 0,0 km/h (0 Bft) 95,74 %
20.11.2023 22:02 8,8 C 8,3 C 5,6 C 97 % 1009,5 hPa 0,0 l/m 0 min 0 min 0 W/m 0,0 km/h (0 Bft) 95,74 %
20.11.2023 22:04 8,8 C 8,3 C 5,6 C 97 % 1009,6 hPa 0,0 l/m 0 min 0 min 0 W/m 0,0 km/h (0 Bft) 97,78 %
20.11.2023 22:08 8,9 C 8,3 C 5,6 C 97 % 1009,5 hPa 0,0 l/m 0 min 0 min 0 W/m 0,0 km/h (0 Bft) 97,87 %
20.11.2023 22:10 8,9 C 8,3 C 5,6 C 97 % 1009,5 hPa 0,0 l/m 0 min 0 min 0 W/m 0,0 km/h (0 Bft) 97,87 %
20.11.2023 22:12 8,9 C 8,3 C 5,6 C 97 % 1009,5 hPa 0,0 l/m 0 min 0 min 0 W/m 0,0 km/h (0 Bft) 97,87 %
20.11.2023 22:14 8,9 C 8,3 C 5,6 C 97 % 1009,5 hPa 0,0 l/m 0 min 0 min 0 W/m 0,0 km/h (0 Bft) 97,87 %
20.11.2023 22:16 8,9 C 8,3 C 5,6 C 97 % 1009,4 hPa 0,0 l/m 0 min 0 min 0 W/m 0,0 km/h (0 Bft) 95,65 %
20.11.2023 22:18 8,9 C 8,3 C 5,6 C 97 % 1009,5 hPa 0,0 l/m 0 min 0 min 0 W/m 0,0 km/h (0 Bft) 97,87 %
20.11.2023 22:20 8,9 C 8,3 C 5,6 C 97 % 1009,5 hPa 0,0 l/m 0 min 0 min 0 W/m 0,0 km/h (0 Bft) 97,87 %
20.11.2023 22:22 8,9 C 8,3 C 5,6 C 97 % 1009,6 hPa 0,0 l/m 0 min 0 min 0 W/m 0,0 km/h (0 Bft) 97,87 %
20.11.2023 22:24 8,9 C 8,3 C 5,6 C 97 % 1009,6 hPa 0,0 l/m 0 min 0 min 0 W/m 0,0 km/h (0 Bft) 95,74 %
20.11.2023 22:26 8,8 C 8,3 C 5,6 C 97 % 1009,6 hPa 0,0 l/m 0 min 0 min 0 W/m 0,0 km/h (0 Bft) 97,87 %
20.11.2023 22:28 8,8 C 8,3 C 5,6 C 97 % 1009,6 hPa 0,0 l/m 0 min 0 min 0 W/m 0,0 km/h (0 Bft) 100,00 %
20.11.2023 22:30 8,8 C 8,3 C 5,6 C 97 % 1009,7 hPa 0,0 l/m 0 min 0 min 0 W/m 0,0 km/h (0 Bft) 97,87 %
20.11.2023 22:32 8,8 C 8,3 C 5,6 C 97 % 1009,6 hPa 0,0 l/m 0 min 0 min 0 W/m 0,0 km/h (0 Bft) 91,49 %
20.11.2023 22:34 8,8 C 7,8 C 5,6 C 97 % 1009,7 hPa 0,0 l/m 0 min 0 min 0 W/m 0,0 km/h (0 Bft) 97,83 %
20.11.2023 22:36 8,8 C 7,8 C 5,6 C 97 % 1009,7 hPa 0,0 l/m 0 min 0 min 0 W/m 0,0 km/h (0 Bft) 100,00 %
20.11.2023 22:38 8,8 C 7,8 C 5,0 C 97 % 1009,7 hPa 0,0 l/m 0 min 0 min 0 W/m 0,0 km/h (0 Bft) 96,55 %
20.11.2023 22:40 8,8 C 7,8 C 5,0 C 97 % 1009,8 hPa 0,0 l/m 0 min 0 min 0 W/m 0,0 km/h (0 Bft) 94,29 %
20.11.2023 22:42 8,8 C 7,8 C 5,0 C 97 % 1009,9 hPa 0,0 l/m 0 min 0 min 0 W/m 0,0 km/h (0 Bft) 95,74 %
20.11.2023 22:44 8,7 C 7,8 C 5,0 C 97 % 1009,9 hPa 0,0 l/m 0 min 0 min 0 W/m 0,0 km/h (0 Bft) 95,74 %
20.11.2023 22:46 8,7 C 7,8 C 5,0 C 97 % 1009,9 hPa 0,0 l/m 0 min 0 min 0 W/m 0,0 km/h (0 Bft) 97,87 %
20.11.2023 22:48 8,7 C 7,8 C 5,0 C 97 % 1009,9 hPa 0,0 l/m 0 min 0 min 0 W/m 0,0 km/h (0 Bft) 94,55 %
20.11.2023 22:50 8,7 C 7,8 C 5,0 C 97 % 1009,9 hPa 0,0 l/m 0 min 0 min 0 W/m 0,0 km/h (0 Bft) 93,62 %
20.11.2023 22:52 8,6 C 7,8 C 5,0 C 97 % 1009,9 hPa 0,0 l/m 0 min 0 min 0 W/m 0,0 km/h (0 Bft) 95,74 %
20.11.2023 22:54 8,6 C 7,8 C 5,0 C 97 % 1009,9 hPa 0,0 l/m 0 min 0 min 0 W/m 3,2 km/h (1 Bft) 95,74 %
20.11.2023 22:56 8,6 C 7,8 C 5,0 C 97 % 1009,9 hPa 0,0 l/m 0 min 0 min 0 W/m 3,2 km/h (1 Bft) 95,74 %
20.11.2023 22:58 8,6 C 7,8 C 5,0 C 97 % 1009,9 hPa 0,0 l/m 0 min 0 min 0 W/m 0,0 km/h (0 Bft) 96,00 %
20.11.2023 23:00 8,6 C 7,8 C 5,0 C 97 % 1009,9 hPa 0,0 l/m 0 min 0 min 0 W/m 0,0 km/h (0 Bft) 95,74 %
20.11.2023 23:02 8,6 C 7,8 C 5,0 C 97 % 1009,9 hPa 0,0 l/m 0 min 0 min 0 W/m 0,0 km/h (0 Bft) 93,62 %
20.11.2023 23:04 8,6 C 7,8 C 5,0 C 97 % 1009,9 hPa 0,0 l/m 0 min 0 min 0 W/m 0,0 km/h (0 Bft) 97,22 %
20.11.2023 23:08 8,6 C 7,8 C 5,0 C 97 % 1009,9 hPa 0,0 l/m 0 min 0 min 0 W/m 0,0 km/h (0 Bft) 94,90 %
20.11.2023 23:09 8,6 C 7,8 C 5,0 C 97 % 1009,9 hPa 0,0 l/m 0 min 0 min 0 W/m 0,0 km/h (0 Bft) 95,83 %
20.11.2023 23:12 8,6 C 7,8 C 5,0 C 97 % 1009,9 hPa 0,0 l/m 0 min 0 min 0 W/m 0,0 km/h (0 Bft) 91,43 %
20.11.2023 23:14 8,6 C 7,8 C 5,0 C 97 % 1009,9 hPa 0,0 l/m 0 min 0 min 0 W/m 0,0 km/h (0 Bft) 95,74 %
20.11.2023 23:16 8,6 C 7,8 C 5,0 C 97 % 1010,0 hPa 0,0 l/m 0 min 0 min 0 W/m 0,0 km/h (0 Bft) 95,74 %
20.11.2023 23:18 8,6 C 7,8 C 5,0 C 97 % 1010,0 hPa 0,0 l/m 0 min 0 min 0 W/m 0,0 km/h (0 Bft) 97,83 %
20.11.2023 23:20 8,6 C 7,8 C 5,0 C 97 % 1010,0 hPa 0,0 l/m 0 min 0 min 0 W/m 0,0 km/h (0 Bft) 95,74 %
20.11.2023 23:22 8,6 C 7,8 C 5,0 C 97 % 1010,1 hPa 0,0 l/m 0 min 0 min 0 W/m 0,0 km/h (0 Bft) 95,74 %
20.11.2023 23:24 8,6 C 7,8 C 5,0 C 97 % 1010,0 hPa 0,0 l/m 0 min 0 min 0 W/m 0,0 km/h (0 Bft) 95,74 %
20.11.2023 23:26 8,6 C 7,8 C 5,0 C 97 % 1010,1 hPa 0,0 l/m 0 min 0 min 0 W/m 0,0 km/h (0 Bft) 97,87 %
20.11.2023 23:28 8,6 C 7,8 C 5,0 C 97 % 1010,2 hPa 0,0 l/m 0 min 0 min 0 W/m 0,0 km/h (0 Bft) 97,87 %
20.11.2023 23:30 8,6 C 7,8 C 5,0 C 97 % 1010,2 hPa 0,0 l/m 0 min 0 min 0 W/m 0,0 km/h (0 Bft) 97,87 %
20.11.2023 23:32 8,6 C 7,8 C 5,0 C 97 % 1010,3 hPa 0,0 l/m 0 min 0 min 0 W/m 0,0 km/h (0 Bft) 97,87 %
20.11.2023 23:34 8,6 C 7,8 C 5,0 C 97 % 1010,3 hPa 0,0 l/m 0 min 0 min 0 W/m 0,0 km/h (0 Bft) 97,83 %
20.11.2023 23:36 8,6 C 7,8 C 5,0 C 97 % 1010,3 hPa 0,0 l/m 0 min 0 min 0 W/m 0,0 km/h (0 Bft) 100,00 %
20.11.2023 23:38 8,6 C 7,8 C 5,0 C 97 % 1010,4 hPa 0,0 l/m 0 min 0 min 0 W/m 0,0 km/h (0 Bft) 97,87 %
20.11.2023 23:40 8,6 C 7,8 C 5,6 C 97 % 1010,4 hPa 0,0 l/m 0 min 0 min 0 W/m 0,0 km/h (0 Bft) 100,00 %
20.11.2023 23:42 8,6 C 7,8 C 5,0 C 97 % 1010,4 hPa 0,0 l/m 0 min 0 min 0 W/m 0,0 km/h (0 Bft) 100,00 %
20.11.2023 23:44 8,6 C 7,8 C 5,0 C 97 % 1010,5 hPa 0,0 l/m 0 min 0 min 0 W/m 0,0 km/h (0 Bft) 100,00 %
20.11.2023 23:46 8,6 C 7,8 C 5,0 C 97 % 1010,5 hPa 0,0 l/m 0 min 0 min 0 W/m 0,0 km/h (0 Bft) 97,87 %
20.11.2023 23:48 8,6 C 7,8 C 5,0 C 97 % 1010,5 hPa 0,0 l/m 0 min 0 min 0 W/m 0,0 km/h (0 Bft) 100,00 %
20.11.2023 23:50 8,6 C 7,8 C 5,6 C 97 % 1010,5 hPa 0,0 l/m 0 min 0 min 0 W/m 0,0 km/h (0 Bft) 100,00 %
20.11.2023 23:52 8,6 C 7,8 C 5,0 C 97 % 1010,5 hPa 0,0 l/m 0 min 0 min 0 W/m 0,0 km/h (0 Bft) 100,00 %
20.11.2023 23:54 8,6 C 7,8 C 5,0 C 97 % 1010,5 hPa 0,0 l/m 0 min 0 min 0 W/m 0,0 km/h (0 Bft) 100,00 %
20.11.2023 23:56 8,6 C 7,8 C 5,0 C 97 % 1010,4 hPa 0,0 l/m 0 min 0 min 0 W/m 0,0 km/h (0 Bft) 100,00 %
20.11.2023 23:58 8,6 C 7,8 C 5,0 C 97 % 1010,4 hPa 0,0 l/m 0 min 0 min 0 W/m 0,0 km/h (0 Bft) 100,00 %
_ Min-Zeit 20:28 20:10 19:26 14:04 19:14 - - - - 16:46 11:04
Minimum _ 8,4 C 7,2 C 5,0 C 87 % 1008,6 hPa - - - - 0,0 km/h (0 Bft) 50,00 %
_ Max-Zeit 13:58 13:44 13:58 00:00 09:08 10:28 09:32 18:16 13:44 01:08 00:00
Maximum _ 11,5 C 12,8 C 8,3 C 97 % 1010,8 hPa 0,2 l/m 2 min 4 min 299 W/m 45,1 km/h
SO (6 Bft)
100,00 %
Durchschnitt _ 10,2 C 9,6 C 6,6 C 94 % 1009,6 hPa #0,6 l/m #28 min. #54 min. 67 W/m 12,1 km/h (2 Bft) 97,34 %
© 2023 W. Hausmann